GFSSGP_850_temp_072.txt.gz
Temp
19 19 18 17 18 18 19 20 23 24 25 25 23 24 22 19 21 18 18 19 18 18 18 18 18 19 18 18 18 18 18 18 18 18 18 18 18 18 18 18 17 17 17 17 18 18 18 17 18
19 18 17 17 19 20 20 20 24 24 24 23 23 23 22 19 18 16 18 18 18 18 18 18 18 18 18 18 18 18 18 18 18 18 18 18 18 17 17 17 18 17 17 18 17 17 18 18 18
19 18 18 18 20 19 20 19 23 24 24 24 22 22 20 17 17 17 19 19 18 18 18 18 18 18 18 18 18 18 17 18 18 18 18 18 17 17 17 17 17 17 17 17 17 17 17 18 17
19 18 18 18 20 21 21 22 24 23 23 23 21 20 19 18 17 19 19 19 19 18 18 18 18 18 19 18 18 18 18 18 18 18 18 18 17 17 17 17 17 17 17 18 18 18 18 18 17
18 19 19 20 20 20 23 23 22 24 21 22 21 20 19 19 18 18 19 19 19 18 18 19 18 18 18 18 18 18 18 18 18 18 18 17 17 17 17 17 17 17 18 18 17 18 18 18 17
19 19 19 21 20 22 24 23 23 22 22 21 20 20 18 19 19 18 19 19 19 19 19 19 18 18 18 18 18 18 18 18 18 18 18 17 17 18 18 17 18 18 18 18 18 18 17 17 17
19 19 20 21 21 20 22 21 23 22 22 21 21 20 18 19 19 18 19 19 20 20 19 18 18 18 18 18 18 18 18 18 18 18 18 18 18 18 18 18 18 18 18 18 18 18 17 17 17
20 19 21 19 20 20 20 21 24 22 23 21 21 19 18 19 18 18 19 19 20 20 19 19 19 19 19 18 18 18 18 19 18 18 17 17 17 18 18 18 18 18 18 18 18 17 17 17 17
21 19 20 21 21 22 21 20 22 22 21 22 21 21 21 19 18 19 19 19 20 19 20 20 19 19 19 19 18 19 19 19 18 18 17 18 17 18 18 18 18 18 18 18 19 18 18 17 17
21 18 22 24 23 20 21 20 20 21 22 22 21 21 21 19 19 19 19 19 19 19 20 20 19 19 19 19 19 19 19 18 18 18 18 18 18 18 18 18 18 19 19 19 19 18 17 17 17
22 21 23 24 22 22 21 19 19 20 22 21 20 20 20 20 18 20 20 21 21 20 20 20 20 19 19 19 19 19 19 18 18 18 19 18 18 18 18 18 18 19 19 19 19 18 18 18 18
21 24 25 25 22 21 20 18 18 18 20 20 22 22 21 20 19 20 21 20 20 20 20 20 20 20 20 20 19 20 19 19 19 18 19 18 18 18 18 18 19 18 19 19 19 19 19 19 18
23 24 26 27 25 21 20 19 19 18 19 20 21 21 21 20 20 21 21 21 21 20 20 21 20 20 20 19 19 19 18 19 19 19 19 18 18 18 18 18 19 18 19 19 19 19 19 19 19
25 26 27 28 22 21 21 20 20 20 20 20 20 21 21 21 21 21 21 20 21 21 20 20 20 20 19 19 19 18 18 19 18 19 19 19 18 18 18 18 19 19 19 19 19 19 19 19 19
25 24 25 25 23 22 20 20 20 19 21 20 21 21 21 21 21 21 22 21 21 21 20 20 20 20 20 20 19 19 19 19 19 19 19 19 19 19 19 18 18 18 19 19 19 19 19 19 18
24 23 23 25 24 22 23 20 18 20 21 20 21 21 21 21 22 22 22 22 21 20 20 20 20 19 20 19 19 20 20 19 19 19 19 19 19 19 19 19 19 18 18 18 19 19 19 19 19
19 21 23 24 25 22 22 19 18 19 20 21 21 22 22 21 22 22 22 23 22 21 20 20 20 20 20 19 20 19 20 20 20 19 19 19 19 19 19 19 19 19 18 19 19 19 19 19 19
21 22 22 23 26 24 21 19 19 18 19 21 21 21 22 22 22 22 22 23 22 22 21 21 21 21 20 19 19 19 19 19 19 19 19 19 19 19 19 19 19 19 19 19 19 19 19 19 19
22 22 22 24 26 26 24 19 19 18 19 20 20 21 22 22 23 23 22 23 23 22 21 21 21 20 20 20 19 19 19 19 19 19 19 19 19 19 19 19 19 19 19 19 19 19 19 20 19
22 21 21 23 26 22 19 19 17 18 19 19 21 21 22 22 22 22 22 23 23 22 21 21 21 21 20 20 20 20 20 19 20 20 19 19 19 19 19 19 19 19 19 19 19 19 19 20 20
21 21 22 22 23 21 21 20 19 19 20 18 20 22 21 22 22 22 22 22 23 22 22 22 21 21 20 20 20 20 19 19 19 19 20 20 19 19 19 20 19 19 19 19 19 19 20 20 20
20 22 24 24 23 22 23 21 19 19 18 18 19 19 19 21 22 23 22 22 23 22 22 22 22 21 21 20 20 20 20 19 19 20 20 20 19 19 19 19 19 19 19 19 19 19 19 20 20
22 24 23 25 22 22 24 20 20 19 18 19 18 19 19 21 22 23 23 23 23 23 22 22 22 21 21 20 20 20 20 20 20 20 20 20 19 20 20 19 19 19 19 19 19 19 19 19 19
25 24 21 19 19 18 20 22 19 18 21 20 19 19 19 21 22 23 23 23 23 23 22 22 22 21 21 20 20 20 20 20 20 20 20 20 20 20 20 20 20 20 20 19 20 20 20 20 20
24 18 17 19 18 18 19 20 21 21 21 21 20 20 20 22 22 23 23 22 23 23 22 22 22 21 21 20 20 20 20 20 20 20 20 20 20 20 20 20 20 20 20 19 19 19 20 20 20
23 18 17 19 18 18 20 21 23 23 24 24 22 21 21 22 21 23 23 22 23 23 23 22 22 22 22 21 20 20 20 20 20 20 20 20 20 21 21 21 20 20 20 20 20 20 20 20 20
22 20 19 18 18 18 19 21 23 25 23 23 22 23 22 22 23 23 23 23 23 23 23 23 23 22 22 22 21 20 21 20 20 20 21 20 21 21 21 21 21 20 21 21 20 20 20 20 20
17 18 19 15 18 19 18 21 20 22 22 22 21 21 20 22 23 24 24 23 22 23 22 22 23 23 23 22 21 21 20 21 21 20 20 21 21 21 21 21 20 20 20 21 21 20 20 20 20
15 15 15 15 16 16 17 18 22 20 20 20 21 22 22 22 22 23 23 23 23 22 22 22 21 22 23 22 22 21 21 21 21 21 20 20 20 20 21 21 21 20 20 20 20 20 20 20 20
18 14 12 12 15 15 16 18 21 20 20 21 20 23 22 20 22 22 25 25 25 23 22 22 21 22 22 23 22 22 21 21 21 21 21 20 20 20 20 21 21 20 20 20 20 20 20 20 20

GFSSGP_850_temp_075.txt.gz
Temp
19 18 17 18 17 18 18 19 21 23 23 23 22 23 21 19 20 18 17 19 19 18 18 18 18 18 18 18 18 18 18 18 18 18 18 18 18 18 18 18 18 18 17 18 18 18 18 18 18
19 18 17 17 19 20 19 20 20 22 24 23 22 21 20 18 17 17 17 19 19 18 18 18 18 18 18 18 18 18 18 18 18 18 18 17 18 17 18 18 17 17 17 17 17 18 17 17 17
18 17 17 18 19 20 19 20 22 22 23 23 20 20 18 16 17 17 19 19 18 18 18 18 18 18 18 18 18 18 17 18 18 18 18 18 17 17 17 18 17 17 17 17 17 17 18 18 17
18 17 18 18 20 21 21 21 23 22 22 22 20 18 18 17 17 18 19 19 18 18 18 18 18 18 18 19 18 18 18 18 18 18 18 17 18 17 17 17 17 17 17 17 17 17 18 17 17
18 18 18 19 20 21 23 22 20 20 21 21 21 19 17 17 18 18 19 19 19 18 18 18 18 18 18 18 18 18 18 18 18 18 18 17 17 17 18 17 17 17 17 17 18 18 17 17 17
18 19 19 20 21 22 23 22 20 20 20 20 19 19 17 18 18 18 19 19 18 18 18 18 18 18 18 18 18 18 18 18 17 17 17 17 17 17 17 17 17 16 17 17 17 17 17 17 17
18 18 20 20 22 21 20 20 20 21 21 20 20 18 16 17 18 18 18 19 18 18 19 18 18 18 18 18 18 18 18 18 18 18 17 17 17 17 17 17 17 17 17 17 17 17 17 17 17
19 19 20 18 20 20 19 19 20 21 21 20 20 17 17 17 18 18 18 18 18 19 19 18 18 18 18 18 18 18 18 18 18 17 17 17 17 17 17 17 18 17 17 18 17 17 17 17 17
20 19 20 21 21 21 19 20 20 19 20 21 21 19 18 17 18 18 18 18 18 18 18 19 19 18 18 18 18 18 18 18 18 17 17 17 18 17 17 18 18 18 18 17 17 17 17 17 17
20 18 22 23 22 20 20 18 17 18 21 21 19 19 17 18 17 18 18 18 18 18 18 19 19 19 19 19 19 19 18 18 18 18 17 17 18 18 18 18 18 18 18 17 17 17 17 17 17
20 20 22 23 22 19 18 18 18 19 20 20 19 18 17 17 18 18 19 20 20 19 19 19 19 19 19 19 19 19 18 18 18 18 18 18 18 18 18 18 19 18 18 18 18 17 17 17 18
20 22 22 23 22 22 20 17 17 18 19 20 19 18 18 18 18 19 19 19 19 19 20 19 19 19 19 19 18 18 18 18 18 18 19 18 18 18 18 18 19 18 18 18 18 18 17 18 18
21 22 23 24 25 22 19 19 19 18 18 19 20 19 18 18 19 19 20 20 20 20 20 20 20 19 19 19 19 18 18 18 18 18 18 18 18 18 18 18 19 18 18 18 18 18 18 19 19
23 23 24 25 22 20 20 19 20 20 19 19 20 19 19 18 19 19 19 20 20 20 20 20 20 20 19 19 19 19 18 18 18 18 19 18 18 18 18 18 19 19 18 18 18 18 18 18 19
23 22 23 22 21 21 20 19 21 20 20 19 20 20 19 19 19 20 20 20 20 20 20 20 20 20 19 19 18 18 19 18 18 18 18 18 18 18 18 19 19 19 19 19 19 18 19 19 19
23 21 22 22 22 20 22 19 19 19 19 19 20 20 20 20 20 20 21 21 20 20 20 20 20 20 19 19 19 19 19 19 19 18 18 18 18 18 18 18 18 19 19 19 19 18 18 19 19
18 21 22 23 22 21 21 19 19 19 20 19 20 20 20 20 20 20 20 21 21 21 21 20 20 19 19 19 19 20 19 19 19 19 19 18 19 18 18 18 18 19 18 19 19 19 19 18 18
20 21 21 22 23 23 20 19 19 18 19 20 20 21 21 21 21 21 21 21 21 21 21 21 20 19 19 19 19 19 19 19 18 18 18 18 19 19 18 18 18 18 18 19 19 19 19 19 18
21 21 21 22 24 24 20 19 19 18 18 20 20 21 21 21 21 21 21 22 21 21 20 20 21 20 19 19 19 19 19 19 19 18 19 19 18 18 19 18 18 18 18 19 19 19 19 19 19
21 21 20 21 23 21 18 19 19 19 18 19 20 20 21 21 21 21 22 21 22 21 20 20 20 20 19 20 20 20 19 19 19 19 19 18 18 19 19 19 19 19 19 19 19 19 19 19 19
20 19 20 21 22 19 19 19 19 19 18 19 19 20 21 21 21 21 22 22 22 21 21 21 21 21 20 20 19 19 19 19 19 19 19 19 18 18 19 19 19 19 19 19 19 19 19 19 19
19 20 22 22 21 21 21 19 19 19 18 19 19 19 20 21 22 21 22 22 22 22 21 21 21 21 20 20 20 20 19 19 19 19 19 19 19 19 19 19 19 19 19 19 19 19 19 19 19
20 21 21 22 21 21 22 19 19 18 18 18 19 20 20 21 22 21 22 22 22 22 21 22 22 21 21 21 20 20 20 20 20 19 19 19 19 19 19 19 19 19 19 19 19 19 19 19 20
23 22 19 16 16 18 20 20 19 16 19 19 19 19 20 20 21 21 21 22 22 22 22 22 22 22 21 21 21 20 20 20 19 19 19 19 19 19 19 19 19 19 19 19 19 19 19 19 19
19 17 16 18 17 18 19 19 20 19 19 20 20 19 20 21 21 21 21 22 22 22 22 22 22 22 21 21 21 21 20 20 20 20 20 19 19 20 19 19 19 19 19 19 19 19 19 19 19
21 18 16 19 16 18 17 20 22 22 23 23 21 21 20 20 21 21 22 22 22 23 22 22 22 22 22 21 21 21 20 20 20 20 20 20 20 20 20 19 19 19 19 19 19 19 19 20 19
19 16 18 14 15 17 18 20 22 20 20 20 21 21 20 20 20 21 22 22 22 23 23 23 22 22 22 22 22 22 21 20 20 20 20 20 20 20 20 20 20 19 19 19 19 19 19 20 20
15 16 17 13 16 19 17 18 17 18 18 18 19 20 20 20 20 21 21 22 23 23 23 23 23 23 22 22 22 22 22 21 20 20 20 20 20 20 20 20 20 20 20 19 19 19 19 20 20
13 12 11 12 13 14 16 16 18 17 17 17 17 18 20 21 20 22 22 22 22 22 22 23 22 22 23 22 22 22 22 22 21 21 20 20 20 20 20 20 20 20 20 20 19 19 19 19 19
14 12 10 10 13 11 13 14 16 17 18 18 17 18 20 20 20 22 22 21 21 22 22 23 22 22 22 23 22 22 22 22 22 22 21 20 20 20 20 20 20 20 20 20 20 19 19 19 19

GFSSGP_850_temp_078.txt.gz
Temp
18 18 17 17 17 18 19 20 21 21 21 21 21 21 20 19 20 17 18 19 19 18 18 18 18 19 19 19 19 19 19 19 19 19 19 18 18 19 19 18 18 17 18 17 17 18 17 17 17
18 17 17 17 19 19 19 20 20 21 22 21 21 20 19 17 16 17 17 18 19 19 18 19 19 19 19 19 18 18 18 19 18 18 18 18 18 18 17 17 18 18 17 17 17 18 18 18 18
18 17 17 18 19 19 19 20 20 21 22 21 19 19 18 16 16 17 18 18 19 19 19 19 19 18 19 18 18 18 18 18 17 18 17 17 17 18 18 17 17 17 17 17 17 18 18 17 17
17 17 17 19 19 21 20 21 21 21 21 20 19 17 17 16 17 18 18 18 19 19 19 19 19 18 18 18 18 18 18 17 17 18 17 17 17 17 17 17 17 17 17 17 17 17 18 17 17
17 17 18 19 20 21 22 20 21 20 20 19 19 17 16 16 17 18 18 18 19 19 19 19 18 18 18 18 18 18 18 18 17 17 17 17 17 17 17 17 17 17 17 17 17 17 17 17 17
18 18 19 20 21 21 21 20 20 20 20 18 17 17 16 17 18 18 18 18 19 19 18 18 18 18 18 18 18 18 17 17 17 17 17 17 17 17 17 17 17 17 16 17 17 17 17 17 18
18 18 19 19 21 21 20 20 20 19 20 19 18 18 16 17 18 18 18 18 18 18 18 18 18 18 18 18 18 18 18 17 17 17 17 17 17 17 17 17 17 16 15 17 17 17 17 18 18
18 18 20 18 19 19 19 20 20 20 19 19 19 17 16 16 18 18 18 18 18 18 18 18 18 18 17 18 17 18 18 18 17 17 17 17 17 17 17 17 16 16 17 17 17 17 17 18 18
19 18 20 21 21 19 18 19 17 18 19 21 20 18 16 17 18 17 17 17 17 18 18 18 18 18 18 18 17 18 18 17 17 17 17 17 17 17 16 17 16 17 17 17 17 17 17 18 18
19 18 21 23 21 20 19 17 17 18 18 18 17 17 16 17 17 17 17 17 18 18 18 18 18 18 18 18 18 18 18 18 18 17 18 18 17 17 17 17 17 18 17 17 17 17 17 18 18
19 19 22 22 21 20 19 17 17 18 18 19 16 16 17 17 17 17 18 19 20 19 18 18 18 18 18 19 19 18 18 18 17 17 18 18 18 18 18 18 18 18 17 17 18 17 17 18 18
19 22 22 22 21 19 19 17 18 18 18 18 18 18 17 17 17 18 19 19 20 19 19 19 18 18 19 19 18 18 18 18 17 18 18 18 18 18 18 18 18 18 18 18 18 18 18 18 18
20 21 22 23 23 21 19 19 19 18 17 17 17 17 17 17 18 19 20 19 19 20 19 19 19 19 19 19 19 18 18 18 18 18 18 18 18 18 18 18 18 18 18 18 17 18 18 18 18
21 22 22 23 22 19 20 19 20 17 17 17 17 17 17 18 18 18 19 19 20 20 20 19 19 19 19 19 18 18 18 18 18 18 18 18 18 18 18 18 18 17 17 18 18 18 18 19 19
22 21 21 20 20 20 20 19 20 18 18 18 17 17 17 18 18 19 20 20 20 20 20 20 19 19 19 19 18 18 18 18 18 18 18 18 18 18 18 18 18 18 18 18 18 18 18 19 19
21 20 21 20 20 20 20 20 20 19 18 18 19 18 18 18 19 19 20 20 20 20 20 20 19 19 19 19 18 19 18 18 18 18 18 18 18 18 18 18 18 18 18 18 18 18 18 18 18
18 20 22 21 21 20 19 19 20 18 19 19 19 19 18 18 19 20 20 20 20 20 20 20 20 19 19 19 19 19 19 18 18 18 18 18 18 18 18 18 18 19 19 19 19 18 18 18 18
20 20 21 22 20 21 19 19 19 18 18 18 19 19 19 19 19 20 20 20 21 20 20 20 20 19 19 19 19 19 19 19 18 18 18 18 18 18 18 18 18 18 19 19 19 19 18 18 18
21 20 21 21 23 22 19 19 19 18 18 19 19 20 19 19 19 20 20 20 20 20 20 20 20 20 19 19 19 19 19 19 19 18 18 18 18 18 18 18 18 18 19 19 19 19 19 18 19
20 20 20 22 22 20 18 18 18 17 18 19 19 20 20 19 19 20 20 21 20 21 20 20 20 20 20 20 20 19 20 19 19 18 18 18 18 18 18 18 18 18 18 19 19 19 19 19 19
20 18 20 21 20 19 19 19 19 18 18 18 18 19 20 20 20 20 21 21 21 21 21 20 21 20 20 20 19 19 19 19 19 18 18 18 18 18 18 18 18 18 19 19 19 19 19 19 19
19 19 21 21 20 20 20 18 17 19 19 19 18 19 19 20 20 20 21 21 21 21 21 21 21 20 20 20 19 19 20 20 19 19 19 18 18 19 19 18 18 18 18 19 19 19 19 19 19
19 19 20 21 20 20 20 19 18 17 16 17 18 19 19 20 21 20 21 21 22 22 22 21 21 20 20 20 19 19 20 20 19 19 19 19 18 18 19 18 19 19 19 18 18 18 19 19 19
21 19 15 14 15 17 20 19 19 17 18 18 19 19 19 19 20 21 21 21 22 22 22 21 21 21 20 20 20 19 20 20 20 20 19 19 19 18 19 19 19 19 18 19 19 19 19 19 19
19 16 15 16 16 17 16 19 18 18 19 18 18 19 19 20 20 21 21 21 22 22 22 21 21 21 20 20 20 20 20 20 20 20 20 19 19 19 19 19 19 19 19 18 18 18 19 19 19
18 17 15 18 15 17 17 18 18 18 19 18 18 20 20 20 20 21 20 21 21 22 22 22 21 21 21 20 21 21 20 20 20 20 20 20 20 20 20 19 19 19 18 19 18 19 19 19 19
18 15 15 13 14 16 16 17 18 18 18 18 17 18 19 19 19 20 21 21 21 22 22 22 22 22 21 21 21 21 20 20 21 20 20 20 20 20 20 19 19 19 18 18 19 19 19 19 19
15 15 16 13 17 18 16 15 14 15 15 16 16 16 16 17 19 20 20 21 21 21 22 22 22 22 22 22 22 21 21 20 21 20 20 20 20 20 20 20 19 19 19 19 19 19 19 18 19
12 12 11 11 11 14 14 14 16 13 13 14 15 15 15 17 19 19 20 20 21 21 22 22 22 22 22 22 21 22 21 21 20 21 21 20 20 20 20 20 20 19 19 19 19 19 19 19 19
12 11 9 12 14 9 11 13 13 13 13 13 14 14 15 18 18 19 20 20 20 21 21 22 22 22 22 22 22 22 22 21 21 21 21 21 20 20 20 20 20 20 20 19 19 19 19 19 19

GFSSGP_850_temp_084.txt.gz
Temp
18 17 17 17 19 21 24 24 24 24 25 25 25 26 26 26 25 23 19 19 18 18 17 17 17 19 19 19 18 19 18 18 17 18 18 18 18 18 18 17 18 18 18 18 18 18 18 18 18
17 17 17 17 19 23 24 24 24 25 25 25 24 25 25 23 20 19 19 19 18 19 18 17 18 18 19 19 18 18 18 18 18 18 17 18 17 17 18 17 17 17 17 18 18 18 18 17 18
17 17 20 21 21 25 24 24 26 25 25 25 23 24 23 21 19 20 19 18 19 19 19 17 18 18 18 18 18 18 18 18 18 18 17 17 17 17 17 17 17 17 17 18 18 17 17 17 18
18 19 20 23 23 25 24 25 25 25 24 22 23 23 19 18 20 20 19 19 19 19 19 18 18 18 18 18 18 18 18 18 18 18 17 17 17 17 17 17 17 17 17 17 17 18 18 18 17
19 21 23 24 24 25 25 25 25 26 23 22 23 21 18 19 19 19 19 19 19 19 18 17 18 18 18 18 18 18 18 18 18 18 17 17 17 17 17 17 17 17 17 17 18 18 19 18 17
21 20 23 24 25 24 24 22 24 25 23 20 22 22 18 18 19 19 19 20 20 20 19 17 18 18 18 18 18 18 18 18 18 17 17 17 17 17 17 17 17 17 18 17 17 18 19 18 17
20 22 25 25 23 23 23 21 23 24 24 21 21 23 19 19 19 19 19 20 20 20 19 18 17 18 18 18 18 18 18 18 17 17 17 17 17 17 17 17 17 17 17 17 17 17 18 18 18
21 23 25 24 24 22 21 19 18 22 22 20 22 23 21 19 19 19 19 20 20 19 19 19 18 18 17 16 17 18 17 17 17 17 17 17 17 17 17 17 17 17 17 17 17 17 18 18 18
21 23 24 25 25 22 20 20 17 18 21 21 21 23 20 19 19 19 19 19 19 19 19 19 18 17 17 17 17 17 17 17 17 17 17 17 17 17 16 17 17 18 18 17 17 17 17 18 17
23 24 25 27 26 23 20 19 17 19 21 21 21 21 19 19 19 20 20 20 20 19 19 20 19 18 18 18 17 17 17 17 17 17 16 17 17 17 17 16 18 18 18 18 18 18 18 17 18
24 24 27 26 25 24 22 19 18 19 23 21 21 19 19 19 20 20 20 20 20 19 19 19 18 18 18 18 18 18 18 17 16 16 17 17 17 17 18 17 17 17 17 18 18 18 18 18 19
25 26 26 26 25 25 24 20 20 20 20 20 19 19 20 20 20 21 20 20 20 19 19 19 18 17 18 18 19 18 18 18 18 16 16 16 17 17 18 17 17 17 18 17 18 18 18 17 17
25 27 26 26 26 25 22 23 22 20 19 18 18 20 20 21 21 21 21 20 20 18 19 18 17 17 17 17 18 18 18 18 17 17 16 17 18 17 17 17 17 18 18 18 18 18 18 18 18
26 26 26 27 27 24 25 23 22 18 18 18 20 20 21 21 21 20 20 20 20 19 19 18 17 17 17 17 17 17 18 17 18 18 17 16 17 17 17 17 17 18 18 18 18 18 18 19 19
26 27 28 27 26 25 25 24 23 17 17 18 21 21 21 21 21 20 20 20 19 19 18 18 17 17 17 17 17 18 18 18 18 18 18 18 17 18 17 17 18 18 18 18 18 18 18 19 19
27 28 28 27 26 24 26 24 23 18 17 19 21 21 21 21 21 20 20 20 19 19 18 17 18 18 17 17 17 18 18 18 18 18 17 18 18 18 18 18 18 18 18 18 18 19 19 19 19
28 28 28 26 27 26 27 25 22 18 19 20 21 22 22 21 21 21 20 20 20 19 18 17 18 18 17 17 17 17 17 18 18 18 18 18 18 18 18 18 18 18 18 18 19 19 19 19 20
28 29 29 28 27 28 28 26 23 20 21 21 21 22 22 22 22 21 20 20 20 19 18 18 17 17 17 17 17 18 18 18 18 18 18 18 18 18 18 18 17 18 18 19 19 18 19 19 19
29 29 29 28 28 29 28 27 25 22 21 22 22 22 23 23 22 21 21 20 20 19 18 18 17 17 18 17 18 18 19 19 18 18 18 18 18 18 18 18 18 18 19 18 19 19 18 19 19
28 28 28 28 28 29 28 28 26 22 22 22 22 21 23 23 23 22 21 21 20 20 19 18 17 18 19 18 18 19 19 19 18 18 18 17 17 18 18 18 18 18 19 18 19 19 19 20 19
27 28 28 28 28 29 28 27 27 25 21 21 20 22 22 23 23 22 22 21 21 20 19 18 18 18 19 18 18 18 18 18 18 18 18 18 18 18 18 18 18 19 19 19 19 19 19 20 19
27 28 28 27 28 28 29 26 25 24 22 22 22 21 23 22 23 23 22 22 21 21 20 19 18 19 19 19 18 18 19 20 20 19 19 18 17 18 18 18 19 19 18 18 19 18 19 20 20
28 27 27 28 28 28 29 29 25 22 22 23 23 21 21 23 23 23 23 22 22 21 21 20 19 19 18 19 18 18 19 20 19 20 19 18 19 18 18 19 19 19 18 19 18 19 19 19 20
26 26 26 27 29 27 30 30 26 25 24 25 24 24 23 23 23 23 23 23 22 22 21 20 19 21 20 20 20 19 18 19 20 19 19 19 19 18 19 18 19 19 18 18 18 18 19 19 19
26 27 26 26 26 28 30 29 25 23 23 23 23 23 24 23 21 23 23 23 22 22 21 21 19 20 21 20 20 20 19 19 18 18 19 20 20 20 19 19 19 18 19 19 18 19 18 19 18
26 28 28 25 27 28 28 26 23 23 22 22 22 22 23 25 24 22 23 23 22 22 21 21 20 20 21 21 21 20 20 19 19 19 20 19 20 20 19 19 18 18 19 18 18 18 18 18 18
26 26 29 28 30 29 28 24 24 24 23 20 18 18 21 22 24 24 22 23 22 22 21 21 20 20 21 22 21 21 21 20 19 19 19 19 19 20 19 18 18 18 18 18 18 18 18 18 18
25 27 26 27 26 27 26 24 24 22 20 19 17 16 17 22 21 22 24 23 22 22 22 21 20 21 22 21 21 21 21 21 20 18 18 19 19 19 19 19 18 18 18 19 19 18 19 19 18
24 25 26 28 27 28 26 25 22 20 17 17 16 15 15 15 19 21 22 22 22 22 22 21 21 20 20 21 20 20 20 21 21 21 19 18 18 18 18 19 19 18 18 18 19 18 19 19 18
22 24 25 26 25 27 28 22 21 20 18 18 16 14 13 14 15 17 18 19 20 20 21 21 21 21 20 20 20 20 20 19 19 21 21 20 19 18 18 19 19 19 18 18 20 19 19 18 18

GFSSGP_850_temp_087.txt.gz
Temp
19 19 19 20 21 22 23 24 27 26 26 28 29 30 29 26 25 24 21 21 20 19 17 17 19 19 19 19 18 18 18 18 18 19 19 18 19 18 18 18 18 18 18 18 18 18 18 18 17
19 20 19 18 22 24 23 26 25 27 28 28 28 28 27 25 23 22 22 21 21 20 19 17 18 19 18 18 18 18 18 17 18 18 18 17 17 18 17 18 17 18 18 18 18 18 18 18 18
19 20 18 19 24 24 24 26 27 28 28 28 27 26 25 23 23 23 22 21 21 20 20 18 18 18 19 18 18 18 18 18 17 17 18 17 17 17 17 17 17 18 18 18 18 18 18 18 19
20 19 21 19 25 26 27 27 29 27 26 27 26 24 22 23 23 22 22 22 22 20 19 19 17 18 17 18 18 17 17 18 17 18 17 17 17 17 17 17 17 17 18 18 18 18 18 17 19
21 21 22 24 25 27 28 28 28 27 27 26 25 25 23 23 23 22 22 23 22 20 18 17 18 18 18 18 18 18 18 18 18 18 18 17 17 17 17 17 17 18 18 18 18 17 18 18 19
20 22 24 25 25 27 27 23 26 27 25 24 24 22 22 22 22 22 23 23 22 22 20 17 18 18 18 18 18 18 17 18 17 18 18 17 17 18 17 17 17 18 18 18 18 17 18 19 19
22 23 25 26 25 24 25 21 23 26 24 24 25 25 22 22 22 23 23 23 22 22 21 19 17 17 18 18 18 18 18 17 17 18 18 18 17 17 17 17 17 17 18 18 18 19 19 19 18
23 24 26 28 25 24 24 19 19 23 22 22 25 25 24 22 22 23 23 23 22 22 22 19 19 19 18 16 18 18 18 18 18 18 18 18 18 17 17 17 17 18 18 18 18 18 18 18 18
24 24 25 26 26 24 22 20 18 20 23 24 25 25 23 22 23 23 23 22 22 21 22 21 19 19 18 17 18 18 18 18 18 17 18 18 17 17 16 17 17 17 18 18 18 18 18 18 19
26 24 26 28 28 25 23 20 19 21 24 24 25 24 23 22 23 23 23 23 22 22 22 20 19 19 19 19 17 17 17 17 18 18 18 17 19 18 17 18 18 18 18 18 19 18 17 18 19
26 26 28 28 27 26 23 20 20 21 23 24 24 23 22 23 23 24 24 23 23 23 21 21 20 20 19 19 19 19 19 19 18 17 18 18 18 18 18 19 18 19 19 18 19 18 18 19 21
26 27 28 28 27 27 25 22 21 22 21 24 23 23 23 23 24 24 24 24 23 22 21 20 20 20 20 20 21 21 20 20 18 17 18 19 19 19 19 18 19 18 18 19 19 19 19 19 20
26 28 29 28 28 26 25 24 22 22 22 22 22 23 23 24 24 24 24 24 23 22 22 21 20 19 19 19 20 20 20 20 18 19 18 18 19 19 19 19 19 20 19 19 19 19 20 20 19
29 29 30 30 30 27 25 25 24 21 21 21 22 23 24 24 24 24 24 23 22 22 22 21 20 18 19 19 19 19 20 20 20 19 18 18 19 19 19 19 19 18 18 18 19 18 20 19 20
29 30 30 31 29 28 27 25 23 20 21 21 23 24 24 24 24 24 24 23 22 21 21 20 20 19 18 18 18 19 20 19 20 18 18 18 18 18 19 19 18 19 19 19 19 19 20 21 20
29 30 28 30 29 28 27 23 22 18 20 22 24 24 24 24 24 23 23 23 22 22 21 20 21 19 19 18 19 19 20 19 19 20 18 18 17 18 18 19 19 19 19 19 20 20 20 20 19
30 30 28 29 30 29 26 24 23 21 20 22 24 25 25 24 24 23 23 23 22 21 20 20 20 19 19 18 19 19 19 19 19 18 19 18 18 18 18 18 19 19 19 20 20 20 19 20 20
30 31 31 29 30 31 26 26 23 22 20 21 24 24 24 24 24 23 23 23 22 21 20 19 20 19 19 18 19 19 19 19 19 18 18 19 18 18 18 18 19 19 20 20 20 20 20 20 20
33 32 30 25 32 30 28 27 24 20 22 23 23 23 24 24 24 23 23 23 22 21 20 19 19 18 19 19 20 19 19 19 19 19 18 18 18 17 19 18 19 18 19 19 19 20 20 21 21
31 32 31 29 32 31 31 28 26 25 25 24 23 23 23 24 25 23 23 23 22 21 20 19 19 18 18 19 20 21 19 19 20 19 19 18 18 18 19 18 19 19 19 20 19 19 21 21 21
31 32 31 31 30 32 31 28 26 24 25 24 23 23 23 24 25 23 23 23 23 22 20 19 19 18 18 19 19 19 20 19 20 19 19 19 18 18 19 19 18 19 19 19 19 20 20 20 21
30 33 32 31 30 30 32 29 28 26 24 24 23 22 23 23 24 23 22 23 23 22 21 19 18 18 18 18 20 19 20 21 20 21 19 19 18 18 18 18 18 19 19 19 20 19 20 20 21
31 32 31 31 31 31 31 25 20 28 25 25 23 23 23 23 24 23 23 22 23 23 21 20 18 18 19 18 19 19 20 21 20 21 19 20 19 18 18 18 18 19 19 20 18 20 20 20 21
30 31 30 30 31 30 32 31 20 27 27 27 25 23 24 23 23 24 23 23 23 24 22 21 19 19 18 18 19 19 20 20 20 20 20 20 20 19 18 18 18 18 19 18 18 18 19 19 20
29 29 28 27 29 30 33 31 22 27 27 28 26 26 26 24 23 23 23 23 23 24 23 22 20 19 18 18 18 19 18 19 19 20 20 21 20 21 20 20 19 18 18 18 18 18 19 19 19
28 29 29 27 29 30 33 28 26 27 26 25 24 25 25 27 25 23 24 23 23 24 24 23 21 19 18 19 19 18 18 19 20 20 21 21 21 22 20 19 18 18 18 18 18 18 19 19 19
28 28 32 31 32 32 30 26 26 26 25 21 18 20 23 26 26 25 24 23 23 24 23 23 22 20 19 19 19 19 19 20 20 21 20 20 21 19 20 19 18 18 19 18 18 18 19 18 19
27 30 29 30 29 29 29 26 27 25 23 19 17 18 19 22 25 25 24 23 20 23 23 23 22 21 20 20 19 19 19 19 20 20 19 20 21 20 20 19 19 18 18 18 19 19 19 19 19
27 27 29 31 31 31 27 27 27 23 21 18 16 15 15 17 18 20 19 20 21 23 23 23 23 22 21 20 20 20 20 19 19 19 19 19 20 20 20 19 20 19 19 18 18 20 20 19 18
27 28 29 28 28 30 28 24 25 24 21 18 16 14 15 16 16 15 16 17 19 21 21 19 23 23 22 21 21 20 20 20 20 19 19 19 19 19 19 19 19 19 19 19 19 19 20 19 19

GFSSGP_850_temp_093.txt.gz
Temp
20 20 19 19 18 18 21 23 25 26 26 27 26 25 25 26 23 19 18 18 19 19 19 19 19 19 19 19 18 19 19 19 19 19 19 19 18 18 18 18 18 18 18 18 18 19 19 18 18
20 19 18 19 19 20 22 24 25 25 25 26 24 23 22 21 20 18 18 18 19 19 19 19 19 19 18 18 18 18 19 18 18 18 18 18 18 17 18 18 18 17 18 18 19 19 18 18 17
20 18 19 18 19 20 22 25 26 27 26 25 25 24 22 20 19 19 18 19 19 19 19 19 19 19 18 18 18 18 18 18 18 18 18 18 18 18 17 18 18 18 18 19 19 19 18 17 17
20 19 18 18 20 22 24 26 27 25 25 25 24 23 22 21 20 20 19 19 19 20 20 19 19 18 18 18 18 18 18 18 18 18 18 18 18 18 17 18 17 18 18 18 19 19 18 17 17
19 20 19 17 19 25 23 23 26 25 25 25 24 23 22 21 21 20 19 19 19 19 20 19 19 18 18 19 18 18 18 18 18 18 18 18 18 18 18 18 18 17 18 18 18 18 18 18 18
20 18 18 19 22 22 20 21 25 25 25 24 23 23 21 22 21 21 20 20 20 20 19 19 18 18 18 18 18 18 18 18 18 18 18 18 18 18 17 17 17 17 18 18 18 19 18 18 18
20 18 19 20 21 22 21 21 19 25 25 24 23 22 22 22 21 21 21 20 20 21 20 19 18 18 18 18 18 18 18 18 18 18 18 18 18 18 17 17 17 18 18 18 18 19 19 18 18
21 20 20 20 21 20 19 19 19 21 23 24 23 22 22 21 21 21 20 20 20 20 20 19 18 18 19 19 18 19 18 18 18 18 18 18 18 17 18 18 18 18 18 19 19 19 19 18 18
23 20 22 23 22 20 19 20 19 20 22 24 24 23 23 23 22 22 20 19 20 19 19 19 19 19 19 19 19 19 18 17 18 18 17 17 18 17 18 18 18 18 19 19 19 19 19 19 19
22 21 24 26 23 22 21 20 19 21 22 20 24 24 24 22 22 21 21 20 19 18 19 20 19 19 19 19 19 19 18 18 17 17 17 17 18 18 18 18 18 18 18 19 19 19 19 20 20
19 20 26 26 23 22 21 20 20 20 22 24 24 24 24 23 23 22 22 21 20 19 20 20 19 19 19 19 19 19 18 18 18 18 18 17 18 18 17 17 18 19 19 19 19 18 19 20 20
17 20 25 25 24 23 22 21 21 21 20 24 24 24 24 24 23 23 22 21 20 20 20 20 19 19 19 19 18 19 19 18 18 18 18 18 18 19 18 18 17 18 19 20 19 19 19 20 19
19 26 25 26 25 24 23 22 21 19 21 24 24 24 25 24 23 23 22 22 22 21 20 20 19 20 19 19 19 19 19 18 19 18 18 18 18 18 19 20 20 19 19 19 20 20 19 20 20
26 25 25 26 25 24 23 22 22 19 22 23 24 24 25 25 24 23 22 21 22 21 20 20 19 19 19 19 19 19 19 19 19 19 19 18 18 18 18 19 19 19 19 18 19 19 19 20 20
25 25 23 27 25 25 24 22 21 21 22 24 24 25 25 25 24 23 21 22 21 20 20 20 20 20 20 19 19 19 19 19 19 19 19 19 18 18 18 19 18 18 18 18 19 19 19 20 20
26 22 21 26 25 24 24 20 22 22 23 24 24 25 25 25 25 23 23 22 21 21 21 20 20 20 20 19 20 19 19 19 19 19 19 19 18 19 19 19 18 18 19 19 19 19 19 20 20
25 23 23 25 26 25 23 21 22 22 22 24 24 25 25 25 25 24 23 22 21 21 21 20 20 20 20 19 20 20 19 19 19 19 19 19 18 19 19 19 18 18 19 19 19 19 20 20 20
25 25 26 24 20 20 21 22 21 21 23 24 24 25 25 25 25 23 23 23 22 21 21 21 20 20 20 19 19 20 19 19 19 19 19 19 19 19 19 19 19 19 19 20 20 20 20 20 20
27 27 25 20 22 19 21 21 21 21 23 24 24 25 25 25 25 24 23 22 22 21 21 21 20 20 19 19 19 19 19 19 19 19 19 19 19 19 19 19 19 19 20 19 20 20 20 20 21
27 27 21 21 21 21 20 21 21 21 23 24 24 25 25 25 25 24 23 22 22 21 21 20 20 20 19 20 19 20 19 19 19 19 19 18 18 19 19 18 19 19 19 19 19 20 20 20 21
27 26 24 23 21 19 20 19 21 21 24 23 23 24 25 25 24 24 24 23 22 21 21 20 20 20 20 19 19 19 20 19 19 18 18 19 19 19 19 19 19 19 20 20 20 20 20 21 21
24 28 28 23 23 21 22 18 17 20 20 22 22 23 24 24 24 24 24 23 22 21 21 20 19 19 20 18 19 19 20 20 20 19 19 19 19 18 18 19 19 19 20 20 19 20 20 21 21
27 28 27 26 24 22 21 19 19 19 20 21 22 23 24 24 24 24 24 23 23 22 22 21 20 19 20 19 18 20 19 20 19 18 19 20 19 19 19 19 19 19 19 19 20 19 20 21 20
29 29 27 25 21 22 24 22 18 18 20 20 22 23 23 23 24 24 24 23 23 22 22 21 20 20 20 19 19 19 19 19 19 19 19 19 20 19 19 18 19 20 19 19 19 19 20 21 20
27 27 22 23 21 22 24 23 18 19 18 19 19 20 23 23 23 24 24 23 23 22 21 21 20 20 20 19 20 19 19 19 20 20 20 20 19 19 19 19 19 19 19 19 20 20 20 21 21
25 24 21 23 23 24 25 18 19 19 20 19 19 20 18 21 22 23 23 23 23 21 21 22 21 20 20 20 20 20 19 20 20 20 20 19 20 20 20 19 19 19 20 19 20 19 20 20 21
25 24 25 25 25 24 21 19 18 20 18 18 18 21 17 18 21 23 22 24 23 22 22 22 22 22 21 21 21 20 20 20 20 20 20 20 20 20 20 19 19 19 19 19 19 20 20 20 21
26 25 22 22 24 24 20 20 19 19 20 19 17 16 15 17 23 22 21 21 22 20 21 21 22 21 22 22 21 21 20 20 20 20 20 20 20 20 20 20 20 20 20 19 19 19 19 19 20
24 22 24 23 23 22 19 19 17 18 18 18 17 15 15 15 16 17 18 19 19 19 18 20 20 20 19 21 22 21 21 20 20 20 20 20 20 20 20 20 20 21 20 19 20 19 20 19 20
25 24 23 20 22 21 18 17 16 18 17 17 16 14 14 15 15 16 16 18 19 19 17 19 19 19 19 18 19 21 21 20 20 20 20 20 20 20 20 20 20 20 20 20 19 20 20 19 19

GFSSGP_850_temp_096.txt.gz
Temp
19 19 18 18 18 18 21 23 24 25 25 26 24 25 23 23 22 18 19 19 18 19 18 18 19 19 19 19 19 19 18 18 19 18 18 18 18 18 18 18 18 18 18 18 19 18 17 17 18
19 19 18 18 19 19 22 23 23 24 24 23 23 22 21 18 18 17 17 18 19 19 19 19 19 19 19 18 19 19 18 18 18 18 18 17 18 18 18 18 18 18 18 18 18 18 17 17 17
19 18 18 17 19 20 22 24 24 23 24 24 22 21 20 18 17 17 19 19 19 19 20 19 19 18 19 18 18 18 18 18 18 18 18 18 18 18 18 18 18 18 18 18 18 17 17 17 17
19 18 18 18 19 22 23 23 25 24 23 23 22 20 19 19 18 19 19 19 19 20 19 19 19 18 18 18 18 18 18 18 18 18 18 18 18 18 18 18 18 18 19 19 18 18 17 17 17
19 19 18 18 19 22 22 25 24 24 22 23 21 20 20 20 19 19 19 19 20 19 19 19 19 18 18 18 18 18 18 18 17 18 17 17 17 17 17 18 18 19 19 19 18 18 18 17 17
19 18 18 18 21 22 22 24 24 24 23 21 20 20 19 19 19 19 20 20 20 20 19 19 18 18 18 18 18 18 18 18 18 18 17 17 17 17 18 18 18 19 19 19 18 18 17 17 16
19 18 18 19 19 21 22 22 23 23 22 22 21 20 19 19 20 20 20 19 20 20 20 19 18 18 18 18 18 18 18 18 18 18 17 17 17 18 18 18 19 19 19 19 18 17 17 17 17
20 18 19 19 20 20 19 19 21 23 23 22 21 20 19 19 19 19 19 19 20 20 20 19 19 19 18 18 18 18 18 18 18 18 17 17 17 18 18 19 19 19 19 18 18 18 17 17 17
20 19 20 19 20 20 19 21 22 21 23 22 23 21 20 19 20 19 19 19 19 19 19 19 19 18 18 18 18 18 18 17 18 18 17 17 18 18 18 18 19 19 19 18 18 18 18 17 17
20 19 22 22 22 21 21 20 20 21 23 22 22 21 20 19 20 20 20 19 19 19 19 19 19 19 18 18 18 18 17 17 18 17 17 18 18 18 18 18 18 18 19 19 19 18 18 18 18
18 19 20 24 22 21 21 20 20 20 20 22 21 20 20 20 20 20 20 20 20 19 19 19 19 19 19 18 18 18 18 17 18 18 18 18 17 17 18 19 18 19 19 19 19 19 19 18 18
19 19 19 22 22 22 21 21 22 21 21 23 23 22 21 20 20 20 20 20 20 20 20 19 19 19 18 18 18 18 18 18 18 18 18 18 17 18 19 19 19 19 19 19 19 19 19 19 19
21 20 18 20 22 22 21 21 21 21 22 23 22 22 21 21 20 21 21 21 20 20 19 19 19 18 19 19 19 18 18 18 18 18 18 18 18 18 19 19 19 19 19 19 19 19 19 19 20
22 22 19 21 22 22 21 20 22 21 22 24 23 22 22 21 22 21 21 20 20 20 19 19 19 19 19 19 19 19 18 18 18 18 18 18 19 18 19 19 19 19 19 19 19 19 19 19 19
24 23 23 23 21 22 22 21 21 22 22 24 24 23 23 22 22 22 21 21 21 20 19 19 19 19 19 19 19 19 19 18 18 18 18 18 19 19 19 19 19 19 19 20 19 19 19 20 19
24 22 21 21 23 23 22 20 21 22 21 23 24 24 23 22 22 22 21 21 20 20 20 20 20 19 19 19 19 19 19 19 19 19 18 18 18 19 19 19 19 19 19 19 20 19 19 19 20
22 22 21 21 21 23 21 19 21 21 21 24 24 24 24 22 22 22 21 21 21 20 20 20 20 19 19 18 19 19 19 19 19 19 18 18 18 18 19 19 19 19 19 19 20 19 19 20 20
22 22 21 21 20 20 19 20 21 21 22 24 24 24 22 22 22 22 21 21 21 20 21 20 20 19 19 19 19 19 19 19 19 19 19 18 19 19 18 18 19 18 19 19 19 20 19 20 20
22 24 20 19 19 19 19 20 20 21 22 23 24 24 23 22 22 22 22 21 21 20 21 20 20 20 19 20 19 19 19 19 19 19 19 18 18 19 18 19 19 19 19 19 19 19 20 20 20
22 24 20 20 19 19 19 20 20 21 19 22 24 23 24 22 22 22 21 21 21 21 21 20 20 20 19 19 19 19 18 19 19 18 18 18 19 19 18 19 19 19 19 19 20 20 20 20 21
22 23 21 21 19 19 20 18 18 21 21 23 23 24 24 23 23 22 22 21 21 21 21 21 20 20 20 19 19 19 19 19 19 19 19 19 19 18 19 19 19 19 19 19 19 19 20 21 21
20 24 24 20 20 19 20 18 17 18 20 23 23 23 24 24 23 23 22 22 22 22 21 21 20 20 20 19 19 19 19 19 19 19 19 18 18 19 19 18 19 19 19 19 20 20 20 21 21
24 27 25 22 20 20 18 18 17 17 19 21 21 23 23 24 24 23 22 23 22 22 22 21 20 20 20 19 19 19 19 19 19 19 19 18 18 19 19 19 19 19 19 19 20 20 20 20 21
27 25 23 20 19 19 19 20 18 18 19 21 22 22 23 23 23 23 23 23 22 22 22 21 21 20 19 20 19 19 19 19 19 19 19 19 18 19 18 19 19 19 19 19 19 19 20 20 20
26 20 18 20 19 20 20 20 19 20 21 21 22 22 22 22 23 23 23 22 22 22 22 21 21 20 19 19 19 19 19 20 20 19 19 19 19 19 18 19 19 19 19 19 19 19 20 20 20
24 21 18 21 20 21 22 21 19 20 21 21 21 21 20 22 22 21 22 23 23 22 22 21 21 20 20 19 19 19 19 20 20 20 19 20 20 19 19 19 19 19 19 19 19 20 20 20 20
24 22 21 21 22 21 18 17 19 17 17 18 18 18 18 20 22 21 22 22 22 22 22 22 22 21 20 20 19 19 19 19 20 20 19 20 20 20 21 19 19 19 19 19 19 19 20 21 20
23 23 22 18 22 21 18 17 17 16 17 17 16 15 16 16 19 20 21 21 21 21 21 20 21 21 20 20 20 20 20 20 20 20 20 20 20 20 20 20 20 20 19 19 20 19 20 20 20
22 21 21 19 19 19 18 17 18 17 17 16 15 15 15 16 16 17 20 20 20 20 20 20 20 20 20 19 20 20 20 20 20 20 19 19 20 20 20 20 20 20 20 19 19 19 19 20 20
22 22 19 19 22 17 15 17 17 16 16 15 14 14 15 16 15 16 17 17 19 19 19 17 19 19 20 19 19 19 19 19 20 20 20 19 19 20 20 20 20 20 20 19 19 19 20 19 19

GFSSGP_850_temp_102.txt.gz
Temp
19 19 18 18 18 18 20 22 22 20 20 21 20 21 20 18 19 18 18 19 19 18 17 17 18 18 18 19 19 18 18 17 18 18 18 18 18 18 17 17 17 17 17 17 18 17 17 17 17
19 18 18 17 18 20 21 20 20 21 22 22 21 20 20 17 17 17 18 18 18 18 18 17 18 18 18 19 18 18 18 17 17 17 18 18 18 18 18 17 17 18 17 17 17 17 18 17 17
18 18 18 18 18 20 21 22 22 23 22 21 20 19 18 17 16 17 18 18 18 18 18 18 18 18 18 18 17 17 18 17 17 17 17 17 17 18 18 18 18 17 17 17 17 17 17 17 17
18 18 18 18 20 21 22 22 23 23 22 21 19 18 17 16 17 18 18 18 18 18 18 18 18 18 18 18 18 17 18 17 17 17 17 17 18 18 17 17 17 17 17 17 17 17 17 17 17
18 18 18 18 19 20 22 23 23 22 22 21 20 17 17 17 18 18 19 18 19 19 18 18 18 18 18 18 18 17 17 17 17 17 17 18 18 18 18 18 18 18 17 17 17 17 17 17 17
18 18 18 19 19 19 22 22 22 21 20 19 18 18 16 17 18 18 18 19 19 19 19 18 17 18 17 18 18 17 17 17 17 17 18 18 17 18 17 17 18 18 17 17 17 17 17 17 17
18 17 18 19 20 18 21 22 21 21 19 19 19 17 16 17 18 18 19 19 19 19 19 18 17 18 17 17 17 17 17 17 17 17 17 18 17 17 17 17 17 17 17 17 17 17 17 17 17
18 17 19 18 19 19 20 20 21 20 19 19 19 16 16 17 18 18 18 19 19 19 18 18 18 17 17 17 17 17 17 17 17 17 18 17 17 17 18 18 17 17 17 17 17 17 17 17 17
19 18 19 18 19 18 19 20 21 20 20 20 20 18 18 18 18 18 19 18 18 18 18 18 18 17 17 17 17 17 17 17 17 17 17 17 17 17 18 17 17 17 17 17 18 18 18 18 17
19 18 20 19 19 18 19 21 20 20 19 18 17 17 17 18 18 19 19 18 18 18 18 18 18 18 17 17 17 17 17 17 17 17 17 17 17 18 18 17 18 18 18 18 18 18 18 18 18
18 19 19 18 18 19 19 20 21 19 18 18 16 17 18 18 18 19 19 19 19 19 18 18 18 18 18 17 17 17 17 17 17 17 17 18 18 18 18 18 18 18 18 18 18 18 18 19 19
19 19 19 18 19 20 20 19 21 20 19 20 20 20 19 18 18 19 19 19 18 18 18 18 18 18 17 17 17 17 17 17 17 18 18 18 18 18 18 18 18 18 18 18 18 18 18 18 19
20 19 19 20 20 21 21 20 18 17 20 20 20 19 19 18 19 19 19 19 18 18 18 19 19 18 18 17 17 17 17 18 18 18 18 18 18 18 18 18 18 18 18 18 18 18 19 19 19
21 21 20 21 20 21 19 19 19 17 19 18 19 19 19 19 19 19 19 19 19 19 19 19 19 18 18 17 17 17 17 18 18 18 18 18 18 18 18 18 19 19 18 18 18 19 19 19 19
21 20 21 19 21 20 20 19 19 17 18 19 19 18 18 19 19 20 19 19 19 19 19 19 19 18 18 18 18 18 18 18 18 18 18 18 18 18 18 18 18 18 19 19 19 19 19 19 19
20 21 20 19 20 19 20 19 18 17 18 19 19 18 18 19 19 20 20 20 19 19 19 19 19 18 18 18 18 18 18 18 18 18 18 18 18 18 18 18 18 18 19 19 19 19 19 19 19
19 19 20 20 19 20 20 18 18 16 18 19 19 18 18 19 20 20 20 20 19 19 19 19 19 19 19 18 18 18 18 18 18 18 18 18 18 18 18 18 18 18 19 19 19 19 19 19 19
20 20 21 21 20 20 19 19 19 19 19 20 19 19 19 19 20 20 20 20 19 19 19 19 19 19 19 19 18 18 18 18 18 18 18 18 18 18 18 19 19 19 19 19 19 19 19 19 19
22 21 20 19 18 18 18 19 19 19 21 20 20 19 20 20 21 21 20 20 19 19 19 19 19 19 19 19 19 18 18 18 18 18 18 18 18 18 18 18 19 19 19 19 19 19 19 19 20
20 20 18 18 18 18 18 19 20 19 19 18 20 20 20 21 21 20 20 20 20 20 19 18 19 19 19 19 19 19 18 18 18 18 18 18 18 18 18 18 19 19 19 19 19 19 19 20 20
20 21 18 19 18 17 18 18 18 19 20 19 19 20 21 21 20 20 20 20 20 20 20 19 19 19 19 19 19 19 18 18 18 18 18 18 18 18 18 18 19 19 19 19 19 19 19 20 20
20 21 21 19 18 18 18 18 17 19 18 20 20 21 19 20 21 21 21 21 21 20 20 20 19 19 19 19 19 19 19 19 19 18 18 18 18 18 18 18 18 18 19 19 19 19 19 20 20
22 22 21 19 17 18 18 18 18 17 18 17 17 19 20 20 21 21 22 22 21 20 20 20 19 19 19 19 19 19 19 19 18 18 18 18 18 18 18 18 18 18 19 19 19 19 19 19 20
21 19 17 16 16 18 18 19 17 16 18 18 18 19 21 20 21 22 22 22 21 21 20 20 20 19 19 19 19 19 19 19 19 18 18 18 18 18 18 18 18 18 18 19 19 19 19 19 20
22 18 15 16 16 17 16 18 18 17 18 20 19 20 21 21 20 21 20 21 21 21 21 20 20 20 19 19 20 19 19 19 19 19 19 19 19 19 18 18 18 18 18 18 19 19 19 19 19
18 18 16 18 16 18 17 18 19 17 18 20 20 20 21 21 21 22 21 21 21 21 21 20 20 20 20 19 20 20 19 19 19 19 19 19 19 19 18 18 18 18 19 18 18 19 19 19 19
20 18 19 17 17 17 16 17 17 17 18 19 19 19 19 21 21 21 22 21 21 21 20 20 20 20 20 19 19 19 19 19 19 19 19 19 19 19 18 19 18 18 19 19 19 19 19 19 19
20 19 19 15 18 19 17 16 17 17 17 16 16 17 18 19 20 20 21 21 20 20 20 20 20 20 19 19 19 19 19 19 19 19 19 19 19 19 19 19 19 19 18 18 19 19 19 19 19
20 19 16 15 15 16 16 16 17 16 17 16 15 16 18 18 19 19 20 21 19 19 20 19 19 20 18 18 19 19 18 19 19 19 19 19 19 19 19 19 19 19 19 18 19 18 19 19 19
20 19 17 17 17 14 15 16 16 16 16 15 15 15 15 17 18 19 19 19 19 18 18 17 18 19 19 19 18 18 18 18 18 18 18 18 18 19 19 19 19 19 19 19 19 18 18 19 19

GFSSGP_850_temp_105.txt.gz
Temp
19 19 18 18 20 21 23 23 23 21 21 21 21 22 22 20 21 22 17 19 18 18 18 18 17 18 18 19 18 18 18 18 18 18 18 18 18 18 18 17 18 17 18 17 17 17 17 17 17
19 18 18 18 21 22 22 23 23 23 22 21 21 21 21 19 16 16 17 19 18 18 18 18 18 18 19 18 18 18 18 17 18 18 18 18 18 18 18 18 17 17 17 17 17 17 18 18 18
18 18 18 20 20 21 22 23 24 23 22 22 20 19 19 17 16 16 18 19 19 18 18 18 18 18 18 18 18 18 18 17 18 17 18 18 18 17 17 18 17 17 17 17 17 17 17 17 17
18 18 18 20 20 22 22 24 24 23 22 20 20 19 17 16 16 18 19 18 18 19 18 18 18 18 18 17 17 17 18 18 17 17 17 17 18 17 17 17 17 18 17 17 17 17 17 17 17
18 18 20 19 19 22 23 23 24 23 23 21 21 18 17 16 17 18 18 18 18 19 19 18 18 17 18 18 17 17 17 17 17 17 18 17 17 17 17 18 17 17 17 17 17 17 17 17 17
18 18 19 19 20 20 23 23 23 23 21 19 19 19 17 17 17 17 17 18 18 19 17 17 18 17 17 17 17 17 17 17 18 18 17 17 18 17 18 17 17 17 17 17 17 17 17 17 18
18 17 19 20 20 19 22 22 22 22 21 20 20 20 16 16 18 17 17 18 18 18 17 17 16 17 17 17 17 17 17 17 18 17 17 17 17 17 17 17 17 17 18 18 17 17 17 17 17
18 19 19 18 20 19 20 21 20 21 20 19 20 19 16 16 18 18 17 18 17 17 17 17 17 17 17 17 17 17 17 18 17 17 17 17 17 17 17 17 17 17 18 18 18 18 17 17 17
18 19 20 18 19 18 19 21 20 20 20 20 19 19 18 16 17 17 18 17 16 16 17 17 17 17 17 17 17 17 17 18 17 17 17 17 17 17 17 17 18 18 18 18 18 18 17 17 17
20 20 20 18 18 19 21 21 20 20 20 18 17 16 16 16 17 17 17 17 16 16 16 17 17 17 17 17 17 17 17 18 17 17 17 17 17 18 16 17 18 18 18 18 18 18 18 18 18
20 20 19 17 17 18 20 21 21 20 20 19 18 17 16 16 16 17 17 19 18 16 17 17 17 17 17 17 17 17 17 17 17 17 17 18 17 17 17 18 18 18 18 18 18 18 18 18 18
20 20 19 17 17 17 19 20 19 20 20 19 18 18 17 17 17 17 17 19 19 18 17 17 17 17 17 17 17 17 17 18 17 17 17 18 18 17 17 17 18 18 18 18 18 19 19 19 19
21 20 19 17 19 21 19 20 18 18 18 18 18 18 18 18 17 17 17 19 19 18 18 17 17 17 17 17 17 17 17 18 18 18 18 18 18 17 18 18 18 18 18 18 19 19 19 19 19
21 21 20 19 19 21 18 18 19 17 18 18 18 18 18 18 18 18 18 19 19 19 18 18 18 17 17 17 18 18 18 18 18 18 18 18 18 18 18 18 18 18 18 18 19 19 19 19 19
21 21 22 21 20 20 18 18 18 17 19 19 19 19 18 18 18 18 19 19 19 19 19 19 18 17 17 17 18 18 18 18 18 18 18 18 18 18 18 18 19 18 18 18 19 19 19 19 19
22 22 22 20 21 19 20 18 17 17 18 19 19 19 18 18 18 18 20 19 19 19 19 19 18 18 18 17 18 18 18 18 18 18 18 18 18 18 18 18 18 18 19 19 19 19 19 19 19
23 22 21 20 19 19 19 18 16 17 18 20 19 19 19 18 18 18 20 19 19 19 19 19 18 18 18 18 18 18 18 18 18 18 18 18 18 18 18 18 18 19 19 19 19 19 19 19 19
23 22 22 20 20 20 21 20 17 16 16 20 20 20 19 19 19 19 19 20 19 19 18 19 19 18 18 18 18 18 18 18 18 18 18 18 18 18 18 18 18 19 19 19 19 19 19 20 20
24 24 21 20 19 19 19 20 17 15 18 19 19 19 20 20 20 19 18 20 20 19 19 18 19 19 18 18 18 18 18 18 18 18 18 18 18 18 18 18 18 18 19 19 19 19 20 20 20
24 23 21 19 18 19 18 19 19 17 18 21 20 20 20 20 20 19 20 20 20 20 19 19 19 19 19 19 19 19 18 18 18 18 18 18 18 18 18 18 18 19 19 19 19 20 20 20 20
23 24 21 22 19 19 18 18 18 19 19 19 19 20 20 21 20 19 20 20 20 20 20 19 19 19 19 19 19 19 18 18 18 18 18 18 18 18 18 18 18 19 19 19 19 19 20 20 20
23 24 22 20 21 22 20 18 18 19 17 17 20 19 21 21 21 20 21 20 21 21 20 19 19 18 18 19 19 19 19 18 18 18 18 18 18 18 18 19 19 19 19 19 19 19 20 20 20
23 24 22 22 21 21 19 19 20 19 19 18 19 21 21 21 21 20 20 22 21 21 21 20 19 19 18 18 19 19 19 18 18 18 18 18 18 18 18 18 19 19 19 19 19 19 19 20 20
22 23 21 21 21 21 23 21 20 19 21 21 19 19 21 21 20 20 22 21 21 21 20 20 19 19 19 18 18 19 19 19 19 19 18 18 18 18 18 18 18 18 19 19 19 19 19 20 20
23 23 22 21 21 22 21 21 25 21 21 22 21 20 20 21 21 20 19 20 22 21 21 20 20 20 19 19 18 18 19 19 19 19 18 19 19 18 18 18 18 18 18 18 19 19 19 19 19
23 24 24 22 22 23 20 22 24 21 21 21 21 21 20 20 21 20 20 21 22 22 21 20 20 20 19 19 19 18 19 19 19 19 19 19 18 18 18 18 18 18 18 18 19 19 19 19 19
23 23 25 24 22 24 22 21 21 20 21 20 21 20 20 20 20 20 19 20 22 22 22 21 20 20 19 19 19 19 19 19 19 19 19 19 19 18 18 19 18 18 18 18 18 18 19 19 19
24 26 24 24 23 23 22 21 23 20 20 22 21 20 20 20 19 19 21 20 21 22 21 21 20 20 19 19 19 18 19 18 19 19 19 19 19 19 19 19 19 19 18 18 18 18 18 19 19
23 24 23 25 23 25 24 24 21 21 20 20 20 20 19 19 19 20 20 21 20 21 20 20 20 20 20 19 19 18 18 18 19 18 18 19 19 19 19 19 19 19 19 18 19 19 18 18 19
23 25 25 25 23 22 23 24 19 20 19 18 17 17 18 19 19 20 20 21 20 20 20 19 19 19 19 19 19 18 18 17 18 18 18 18 18 18 19 19 18 18 19 19 19 19 19 18 18

GFSSGP_850_temp_108.txt.gz
Temp
19 18 18 19 22 24 26 26 27 25 26 25 25 26 26 24 25 24 20 19 18 18 17 17 18 18 18 18 18 18 18 18 18 18 18 18 18 18 17 17 18 17 17 17 17 17 17 17 17
18 18 18 20 24 25 26 27 26 27 25 25 24 24 25 22 20 20 19 19 19 19 18 17 18 18 19 19 18 18 18 18 18 18 18 18 18 18 18 17 17 17 17 17 17 18 18 18 18
18 18 20 23 25 24 25 27 27 26 25 25 23 24 23 20 20 20 19 19 19 19 18 18 18 18 18 18 18 18 18 18 18 18 18 17 18 18 18 18 18 17 17 17 17 17 17 17 18
19 20 21 23 24 23 27 27 27 26 25 24 23 22 19 20 20 20 19 19 19 19 19 18 18 18 18 18 18 18 18 18 18 18 18 18 18 18 18 18 17 17 17 17 17 17 17 17 18
20 21 23 22 23 24 27 27 26 27 25 24 24 23 20 19 19 19 19 20 20 19 18 17 18 17 18 17 18 18 18 18 18 18 18 18 17 17 18 18 17 17 18 18 17 17 17 17 18
20 22 23 20 21 24 26 26 26 26 25 23 23 22 20 19 19 19 19 20 20 19 19 17 17 17 17 17 17 17 18 18 18 18 18 17 18 17 17 18 18 17 17 18 18 18 18 18 18
18 20 21 21 20 23 25 25 26 26 24 24 23 24 19 20 19 19 19 19 19 19 18 17 17 17 17 17 18 18 18 17 17 17 17 17 18 17 17 18 18 18 18 18 18 18 17 17 17
20 20 22 22 20 22 24 24 24 25 25 23 23 23 20 20 19 19 19 19 19 19 18 18 17 17 17 16 17 17 17 17 17 17 17 17 18 17 17 17 18 18 18 18 18 18 18 18 17
21 20 23 22 20 21 23 24 22 22 23 23 23 23 20 19 19 19 19 19 19 18 18 19 18 17 16 16 17 17 17 17 17 17 17 17 18 17 16 17 18 18 18 18 18 18 18 18 18
23 23 23 21 20 21 23 23 23 23 24 23 23 21 20 19 19 20 20 19 19 18 19 17 18 16 17 17 16 17 17 17 17 17 16 17 17 17 17 18 18 18 18 18 18 18 18 18 19
24 22 23 19 18 20 23 23 23 24 24 23 22 20 20 20 20 21 21 20 19 19 18 18 17 17 18 17 17 18 17 17 16 16 17 17 17 17 17 17 17 17 18 18 18 18 18 17 19
24 23 23 19 17 20 22 23 22 24 24 23 22 21 20 20 21 21 21 20 19 18 18 18 17 17 17 17 18 17 18 17 17 16 16 16 17 17 17 17 18 18 17 18 17 19 18 18 18
24 22 20 17 17 19 19 21 21 22 22 22 21 21 21 21 21 21 21 20 19 19 18 18 17 16 16 17 17 18 17 18 17 17 16 17 17 17 17 18 17 18 18 18 18 18 18 18 19
24 23 20 17 18 18 20 20 21 21 22 21 21 22 22 22 21 21 20 20 19 19 18 17 17 16 16 17 16 17 18 17 18 18 17 16 17 17 17 18 18 18 18 18 18 18 19 19 19
22 23 22 19 21 21 18 20 19 21 22 22 22 22 22 22 21 21 20 20 20 19 18 17 17 17 16 16 16 18 18 18 18 17 18 17 17 18 17 17 18 18 19 19 18 19 19 20 20
24 24 22 19 20 21 22 20 18 20 22 23 23 22 22 22 21 21 20 20 20 19 18 17 18 17 17 17 17 18 18 18 18 18 17 18 18 18 18 18 18 18 18 18 19 20 20 20 20
26 23 22 19 18 18 18 19 17 18 22 23 23 23 22 22 22 21 20 20 20 19 18 18 18 18 17 18 17 17 17 18 18 18 18 18 18 18 17 18 18 18 18 19 20 20 20 20 21
27 24 23 21 20 19 19 18 18 17 21 23 23 23 23 22 22 21 21 20 20 19 18 18 18 17 17 17 17 18 18 18 18 18 18 18 18 18 17 18 18 18 19 19 20 19 20 20 20
28 28 22 22 21 19 19 18 18 18 20 24 24 24 23 23 22 21 21 21 20 19 18 18 17 17 17 17 18 18 19 18 18 18 18 18 18 18 18 18 18 18 19 19 19 20 20 21 20
28 28 24 21 21 20 19 20 17 17 19 24 24 24 24 23 23 22 21 21 21 19 19 18 17 18 18 18 18 19 19 18 18 18 18 18 17 18 18 18 18 18 19 18 19 20 21 21 21
28 28 26 24 20 19 19 19 18 16 17 22 24 24 24 24 23 22 22 21 21 20 19 18 18 18 18 18 18 18 18 18 18 18 17 17 17 18 18 18 18 18 19 19 19 19 20 21 20
27 27 27 24 24 21 20 20 19 17 17 20 22 23 24 24 23 23 22 22 21 21 19 18 18 17 18 18 18 18 18 18 18 18 18 18 18 18 18 18 18 18 19 19 19 19 20 21 21
26 26 26 26 26 25 24 22 20 19 18 18 20 23 24 24 23 24 23 22 22 21 20 19 18 18 18 18 18 18 19 19 19 18 18 18 18 18 17 18 19 19 18 19 19 19 19 20 21
25 25 25 25 26 26 26 24 20 22 23 24 19 23 24 24 24 24 24 23 22 22 20 20 18 18 18 18 18 18 18 18 18 18 18 18 18 18 18 18 18 19 18 19 19 19 20 19 20
24 25 23 22 24 25 27 25 27 25 24 26 24 22 23 24 24 24 24 22 21 22 21 20 18 18 18 18 17 17 18 18 17 18 19 18 18 19 18 18 18 18 19 19 18 19 19 20 19
25 24 25 23 24 27 24 26 27 26 25 25 25 24 22 24 24 24 23 23 21 22 21 20 19 18 18 18 18 18 18 18 18 18 19 19 19 18 18 17 19 19 19 19 19 18 19 19 19
26 25 28 27 28 27 24 26 25 23 25 24 25 24 24 22 24 24 24 23 22 21 21 20 19 18 18 18 18 18 18 18 18 18 18 18 18 19 17 17 17 17 19 19 19 18 19 18 18
28 28 27 27 26 26 26 26 28 24 23 25 25 24 24 22 22 23 23 22 22 21 21 20 20 19 19 18 18 18 18 18 19 18 18 18 18 18 18 18 17 18 18 18 19 18 18 19 18
26 26 28 29 29 28 27 27 28 25 25 26 25 25 24 23 21 21 21 21 20 20 20 20 19 19 20 19 18 18 18 18 17 17 17 18 18 18 19 19 18 18 18 18 18 18 18 17 18
28 27 28 27 26 27 28 26 23 24 25 24 24 24 24 23 22 21 21 21 20 19 19 20 20 19 19 19 19 18 18 18 18 17 17 18 18 18 19 19 18 18 18 18 18 17 19 18 18

GFSSGP_850_temp_111.txt.gz
Temp
20 19 21 21 21 24 27 28 30 29 29 29 29 29 27 25 26 24 22 22 21 20 18 18 18 18 18 18 19 18 18 18 17 18 18 18 18 18 18 18 17 18 17 17 17 17 17 17 17
21 21 21 22 22 26 28 29 29 29 29 28 28 28 26 25 24 23 22 21 22 21 19 17 18 18 19 18 18 18 18 18 18 18 18 18 17 18 18 17 17 17 17 18 18 18 18 17 17
20 22 21 22 23 25 27 29 30 29 28 28 27 26 25 24 23 23 22 22 21 20 19 19 18 19 19 18 18 18 18 18 18 18 18 17 18 18 17 17 17 17 17 17 17 17 17 18 17
21 21 24 24 25 26 29 30 29 29 28 28 26 25 24 23 24 22 22 21 20 19 18 19 19 18 18 18 18 18 18 18 18 18 17 18 18 18 18 18 17 17 17 17 18 17 17 18 18
21 22 23 23 26 28 30 30 29 29 28 27 27 25 24 23 22 22 21 21 20 20 18 17 18 18 18 18 18 18 17 18 18 18 18 18 18 18 18 18 17 18 18 18 17 17 17 18 18
22 23 23 23 22 28 30 29 29 29 27 26 25 24 23 22 22 23 21 22 23 22 19 17 18 18 18 18 18 18 17 18 17 18 18 18 18 18 18 17 18 18 18 18 18 18 18 18 18
23 23 24 21 20 24 29 29 29 28 27 27 26 25 23 23 23 22 21 23 22 20 19 18 17 18 18 18 18 17 17 17 17 18 18 19 19 18 18 18 18 18 18 18 18 18 18 18 18
22 24 24 24 21 22 27 28 27 27 27 26 26 24 24 23 23 23 23 23 21 20 19 17 18 17 17 16 17 18 18 18 18 18 18 19 19 18 17 18 18 18 18 18 18 18 18 18 19
23 22 24 24 23 22 25 27 26 25 26 27 26 25 24 23 23 23 22 22 21 20 18 20 18 18 17 17 17 18 18 18 18 18 19 18 17 17 17 18 18 18 18 18 18 18 19 19 19
24 23 24 25 23 22 26 26 25 26 26 26 26 24 23 23 23 22 23 22 22 19 19 18 19 19 18 18 17 17 18 18 18 17 17 18 18 17 18 18 18 18 18 18 19 19 19 19 19
26 24 23 22 21 24 25 26 26 27 26 27 25 24 23 23 23 23 23 23 23 20 20 18 19 19 19 18 19 19 18 18 18 17 17 18 19 18 18 18 18 18 18 19 19 19 20 20 21
25 25 24 21 20 23 26 26 26 26 27 26 24 24 23 23 24 24 24 23 22 22 19 20 20 18 19 19 20 19 19 19 18 17 18 18 19 19 19 19 18 19 19 19 18 20 19 20 20
26 25 23 21 19 21 23 24 25 26 26 25 24 24 24 24 24 24 24 23 22 21 20 20 19 18 18 20 20 19 19 18 18 19 18 17 19 19 19 19 19 20 19 20 20 20 20 20 20
26 23 21 20 18 20 23 23 24 25 25 25 24 24 24 25 24 24 23 23 22 22 21 20 18 18 18 18 19 19 18 19 19 19 18 18 19 18 18 19 19 20 20 19 20 19 21 21 21
23 23 22 19 19 20 21 23 23 25 25 25 25 25 25 25 24 23 23 22 22 21 20 19 18 19 18 18 18 19 20 19 19 19 18 18 18 18 18 19 20 20 19 20 20 20 21 22 21
24 23 22 20 19 18 19 21 20 24 25 25 26 25 25 25 24 23 23 23 22 21 20 20 20 19 19 18 19 19 19 19 19 19 18 18 17 17 19 19 20 19 20 20 21 22 22 22 22
25 24 22 19 18 18 20 21 20 21 25 26 26 26 25 25 24 23 23 23 22 20 19 20 20 19 19 18 19 19 19 19 19 19 19 18 17 19 19 20 19 19 20 21 22 22 22 22 23
27 25 23 20 19 18 19 20 19 19 25 26 26 26 25 24 24 23 23 23 22 20 20 20 20 19 19 18 19 19 19 19 20 19 19 18 18 18 19 19 19 19 20 21 20 21 21 22 22
25 25 22 22 20 18 18 18 18 21 21 24 25 26 24 24 24 23 24 23 22 21 20 19 19 18 19 19 19 20 20 19 19 19 18 18 18 18 19 19 19 19 19 20 20 21 21 22 22
27 21 20 22 19 18 17 18 18 17 22 23 24 25 25 24 24 24 24 23 23 21 20 19 19 18 19 20 20 20 19 20 19 19 18 18 18 18 19 19 19 19 20 19 19 20 22 23 22
30 25 23 23 19 18 17 18 17 19 20 23 24 25 25 24 25 24 23 24 23 22 21 19 19 18 19 19 20 19 19 19 19 19 19 18 18 18 19 19 19 20 20 20 20 21 21 22 22
28 28 23 23 23 22 22 18 17 18 19 19 21 24 25 24 24 25 24 22 23 22 21 20 19 18 18 19 19 19 19 19 19 19 20 19 18 18 18 18 18 20 17 20 21 21 21 21 23
28 29 20 26 25 24 22 21 17 17 17 20 21 23 25 26 24 25 24 23 23 23 22 21 19 19 19 18 19 18 19 20 20 20 20 18 18 18 18 18 18 19 19 20 19 20 21 22 22
28 28 28 26 27 26 24 24 20 19 19 21 21 23 24 23 26 23 24 23 22 24 23 22 20 18 18 18 18 19 19 18 19 20 19 20 19 19 18 18 18 18 19 19 19 19 20 20 21
27 28 23 21 24 25 27 26 25 23 25 24 24 23 25 23 25 25 24 22 24 24 23 22 20 18 18 18 18 18 18 19 18 18 19 20 20 20 20 18 18 18 19 18 19 19 19 19 20
28 28 23 24 24 24 29 27 23 26 26 25 25 22 22 26 25 25 25 23 24 24 23 23 20 19 19 19 18 18 17 18 19 19 19 20 20 20 19 18 18 18 18 18 18 19 19 20 20
28 27 30 24 28 26 26 29 26 28 27 27 26 23 22 25 26 27 26 24 24 24 23 22 21 20 19 19 19 18 18 18 19 19 18 19 19 20 19 19 18 18 18 18 18 19 19 19 19
29 30 28 29 25 24 23 23 28 26 27 28 28 24 24 24 24 25 27 26 24 24 23 23 21 20 20 20 19 19 18 18 18 18 19 19 19 19 19 19 19 18 18 18 19 19 19 19 19
28 29 29 30 30 27 25 25 28 27 26 27 28 27 24 25 25 25 26 25 25 24 23 23 22 20 20 20 20 20 19 19 19 18 18 18 18 20 18 18 18 18 18 18 19 19 19 18 19
30 29 29 29 28 30 29 23 26 29 28 27 28 27 27 26 24 25 25 24 24 22 21 21 22 21 20 20 20 19 20 19 19 19 18 18 18 18 18 18 18 18 18 18 18 18 19 19 18

GFSSGP_850_temp_114.txt.gz
Temp
21 21 21 22 20 22 28 29 31 30 30 30 29 28 23 23 26 22 22 21 20 18 19 19 18 18 19 19 19 18 18 18 18 18 18 18 19 18 18 18 18 18 18 18 17 17 17 18 18
20 21 22 20 20 25 28 30 29 30 30 29 27 27 26 25 24 23 22 22 20 18 17 19 19 19 18 18 18 18 18 18 18 18 18 18 18 18 18 18 18 18 18 18 18 18 18 18 18
22 22 21 19 20 24 28 30 30 29 29 28 26 26 25 24 24 23 22 22 21 20 19 19 19 19 19 19 18 18 18 18 18 18 18 18 18 18 18 18 18 17 18 17 18 18 19 18 18
21 22 22 19 21 27 30 30 30 30 29 26 26 26 25 25 24 23 21 20 20 19 20 20 20 19 19 18 18 18 18 18 18 18 18 18 18 18 18 18 18 18 18 18 18 18 18 18 18
22 22 20 21 24 27 31 30 30 30 27 25 26 25 25 24 23 22 22 21 20 19 19 20 19 19 19 18 18 18 18 18 18 18 18 18 18 18 18 18 18 18 18 17 18 18 18 18 18
22 22 22 23 19 23 31 30 28 27 26 24 26 25 24 24 22 23 22 21 20 19 18 19 19 19 18 18 18 18 18 18 18 18 18 18 18 18 18 18 18 18 18 18 18 18 19 19 19
22 22 24 22 20 21 30 30 27 29 28 27 25 25 24 24 23 23 22 21 21 20 18 18 18 18 18 17 18 18 18 18 18 18 18 18 18 19 18 18 19 18 18 18 18 19 19 19 19
24 23 24 23 21 20 28 28 26 28 27 27 25 25 25 24 23 23 22 21 21 19 19 18 18 17 18 17 18 18 19 18 18 18 19 19 19 18 18 18 18 18 18 18 19 19 20 20 19
24 23 23 24 21 19 22 27 24 25 27 27 26 25 25 25 24 23 21 21 20 19 18 18 18 18 18 18 18 18 18 18 17 18 18 19 19 18 17 18 18 18 19 19 19 19 20 20 20
24 23 24 25 24 21 24 23 25 27 28 27 26 25 25 25 24 24 22 22 20 19 19 19 18 18 18 17 18 17 18 17 18 18 17 16 18 18 18 19 19 19 19 19 19 20 19 19 19
25 23 25 25 23 21 23 27 28 28 27 27 25 25 25 25 24 24 24 22 22 19 19 19 19 18 18 19 18 18 18 16 17 18 19 17 19 19 19 19 19 19 18 19 19 20 20 19 20
25 25 24 23 22 19 23 27 27 27 27 27 26 25 25 25 25 25 25 22 21 20 20 19 19 18 20 19 19 17 18 18 19 17 18 16 18 19 19 19 19 18 19 20 20 20 20 20 21
25 25 24 22 23 20 20 26 26 24 26 26 25 25 25 25 25 25 25 23 21 21 20 19 20 19 19 20 19 19 18 18 17 18 18 18 19 19 19 19 19 18 17 20 20 20 20 20 21
25 24 23 21 22 21 24 24 26 24 27 26 25 25 25 26 26 25 24 23 22 21 20 20 19 20 19 19 19 19 19 19 18 19 18 18 18 19 19 19 20 18 20 20 21 20 21 21 21
25 24 23 21 20 22 23 23 26 27 27 26 26 26 26 26 25 25 24 23 23 22 20 20 19 18 19 19 19 19 19 19 19 19 18 19 19 19 18 19 20 20 20 21 21 21 22 22 21
26 22 21 20 20 18 20 22 24 26 27 26 26 26 26 26 25 24 24 23 23 21 20 20 20 19 19 19 19 19 19 19 19 19 19 18 19 19 20 20 19 20 20 21 21 22 22 22 22
26 23 19 18 17 18 19 22 23 24 27 27 27 27 26 26 25 24 24 23 22 20 20 20 20 19 19 19 19 19 19 19 19 19 19 18 20 19 20 19 20 21 20 20 21 22 22 22 23
25 26 21 19 18 18 18 19 23 22 23 27 27 27 26 25 25 24 24 23 21 20 20 20 20 19 20 19 19 19 19 19 19 19 19 19 19 20 19 20 20 19 19 20 20 22 22 22 23
27 25 21 20 18 18 16 16 19 20 20 25 27 27 25 25 25 25 24 22 21 20 20 20 19 19 19 19 20 20 19 19 19 19 19 19 19 19 19 19 20 20 20 20 21 22 22 22 22
28 26 20 19 18 18 17 18 18 18 19 23 26 26 25 24 24 25 24 23 22 21 20 20 19 19 20 20 19 19 19 19 19 19 19 18 19 20 19 19 18 18 20 20 21 20 21 22 22
27 28 22 20 18 18 18 17 16 17 17 18 21 25 25 23 22 24 24 23 22 21 20 19 19 19 18 18 18 19 19 19 19 19 19 19 19 19 19 19 18 19 19 21 21 20 21 22 22
28 24 21 18 18 20 19 18 17 17 17 17 19 24 24 25 25 24 24 24 23 21 21 20 19 19 19 19 18 19 19 19 19 19 19 19 19 20 19 19 18 21 20 20 21 21 21 20 21
25 27 22 20 19 20 20 20 18 16 17 18 19 23 23 23 25 23 25 24 23 22 21 20 20 19 19 19 19 19 19 20 20 19 19 19 19 19 19 19 19 18 19 19 20 20 20 20 21
28 25 22 18 17 20 22 22 20 17 19 21 22 22 23 24 24 24 22 24 23 23 22 20 20 19 19 19 19 18 18 19 19 19 19 20 20 19 19 19 19 19 20 19 20 21 21 20 18
28 28 23 20 22 22 24 24 23 21 23 23 22 22 23 23 24 24 22 23 23 22 22 21 20 20 19 19 19 19 19 19 19 19 20 19 20 20 19 19 19 19 19 19 19 20 21 21 21
28 29 26 23 22 22 23 23 22 24 24 23 24 23 24 24 23 23 24 23 23 22 22 21 21 21 19 19 19 18 18 18 19 19 19 20 19 19 19 19 19 19 19 19 19 20 20 19 20
29 28 30 26 19 23 19 18 25 25 25 23 23 23 23 22 24 23 23 23 22 21 22 22 21 21 19 19 19 19 18 19 19 19 21 20 19 19 20 19 18 19 19 18 18 20 20 20 19
30 31 28 26 22 22 20 20 18 24 25 26 25 25 24 23 22 24 24 23 23 22 22 22 22 21 20 19 19 19 19 19 19 19 19 18 19 20 20 18 19 19 18 19 19 19 19 19 20
29 28 29 30 27 23 23 25 21 21 17 26 25 25 24 24 24 24 24 21 24 23 23 22 21 21 20 20 20 19 19 19 19 19 19 19 20 19 18 19 19 19 19 19 19 19 19 19 19
30 29 30 28 28 29 29 27 23 22 23 27 25 25 25 24 25 25 24 22 23 24 23 21 21 21 21 21 20 20 20 20 19 19 19 19 19 19 19 19 19 19 19 19 19 20 19 18 19

GFSSGP_850_temp_117.txt.gz
Temp
21 20 19 18 19 19 22 27 28 27 26 27 25 26 25 25 23 19 20 19 20 19 17 18 19 19 18 18 18 18 18 18 18 18 19 18 17 17 17 17 18 18 18 17 18 18 18 18 18
21 19 19 18 19 22 24 27 26 25 26 26 25 24 23 22 21 20 19 20 21 19 19 19 18 18 18 18 18 18 18 18 18 18 18 17 18 18 18 19 18 18 19 18 18 18 18 18 17
21 20 20 18 20 22 25 27 26 25 27 26 25 24 24 22 22 21 20 20 19 19 19 19 19 18 18 18 18 18 18 18 18 18 18 18 18 18 18 18 18 19 18 19 19 18 18 18 18
21 20 17 18 21 24 27 27 28 27 26 25 25 24 23 22 21 20 19 19 20 19 19 19 19 18 18 18 18 18 18 18 18 18 18 18 18 19 18 18 18 18 18 19 19 19 18 18 18
20 18 18 19 22 24 28 26 25 25 26 25 24 23 21 22 21 21 21 20 20 19 20 19 18 18 18 18 18 18 18 18 18 18 18 18 18 18 18 18 18 18 19 19 19 19 19 18 18
21 21 19 19 22 22 25 22 25 24 25 25 23 22 21 22 22 21 21 20 21 20 19 19 18 18 18 18 18 18 18 18 18 18 18 18 18 18 19 18 19 19 19 19 19 19 19 18 18
22 19 21 21 20 22 24 24 24 24 25 25 23 22 22 22 21 21 20 19 20 20 20 19 19 19 18 18 18 18 18 18 18 18 18 18 18 18 18 19 19 19 19 19 20 20 20 19 18
23 20 22 21 20 20 23 24 25 26 25 24 23 22 22 22 22 21 20 19 19 20 19 18 19 19 18 18 18 18 18 18 18 18 18 18 18 18 19 19 19 19 20 20 20 20 19 19 19
24 19 21 21 21 22 21 24 24 26 25 24 25 23 23 23 22 21 20 20 20 19 19 18 19 19 18 19 18 18 18 18 17 18 18 18 18 19 19 19 19 19 19 19 20 20 20 20 20
23 20 22 19 22 21 20 23 26 23 23 24 25 23 23 23 22 21 21 20 20 20 18 18 18 19 19 19 18 18 18 18 18 18 18 17 18 19 19 19 19 19 19 19 18 18 19 19 20
25 22 24 22 23 21 20 21 25 22 23 25 25 24 23 23 22 23 21 21 20 19 18 18 19 18 19 19 18 18 18 17 18 18 18 18 18 18 19 19 19 19 19 19 19 19 20 20 20
23 25 25 23 21 21 20 19 20 24 25 25 25 25 24 24 22 21 20 20 20 19 19 19 19 18 18 18 18 18 18 17 18 19 19 18 18 19 19 18 18 19 20 19 19 19 20 21 20
24 24 23 23 21 21 19 19 22 24 25 25 25 25 24 24 24 22 22 21 20 19 19 20 20 18 19 17 18 18 18 19 18 18 18 18 18 19 19 18 19 19 20 20 20 20 21 21 20
23 20 22 21 21 19 20 18 22 24 24 25 25 25 25 25 24 23 22 21 20 20 19 20 20 19 20 19 19 18 19 19 19 18 18 18 18 19 19 19 20 20 20 20 21 20 20 21 21
23 22 21 20 20 20 18 19 23 25 25 25 25 25 25 25 23 22 21 21 21 20 20 20 19 19 19 19 19 19 18 18 19 18 18 19 18 19 19 18 20 20 20 20 20 20 20 21 21
21 20 20 19 19 18 19 20 24 26 26 25 25 25 25 25 24 24 23 22 21 20 20 20 19 19 19 19 19 19 19 19 19 19 18 19 19 19 18 20 20 20 19 20 20 21 21 21 21
19 19 19 18 17 18 19 22 22 23 26 25 25 26 26 25 24 24 23 22 21 21 21 19 19 18 19 19 19 19 19 19 19 19 19 19 19 19 19 19 20 21 20 20 20 21 21 21 22
18 19 20 19 17 17 18 17 19 20 21 26 26 26 25 25 24 24 23 22 21 21 21 20 20 19 20 19 19 19 19 19 19 19 19 19 19 19 19 19 20 20 21 21 21 21 22 22 22
25 23 20 18 18 17 17 17 18 18 19 20 25 26 25 25 24 24 22 22 22 20 20 20 20 19 19 19 19 19 19 19 19 19 19 19 19 19 19 20 20 20 20 21 21 22 22 22 22
23 21 19 18 17 18 16 17 17 18 18 19 21 24 24 24 24 23 22 22 21 20 20 20 20 20 19 19 19 19 19 19 19 19 19 19 19 19 19 20 20 20 20 21 21 21 21 22 22
20 22 19 19 18 17 17 17 17 18 17 19 20 22 25 24 24 22 22 22 21 20 20 20 20 20 19 19 19 19 19 19 19 18 19 19 19 19 18 20 20 20 20 20 20 20 20 21 21
21 20 20 19 19 18 17 18 17 17 17 17 18 19 24 24 24 22 22 22 22 21 21 20 20 20 19 19 19 19 19 19 19 19 19 19 19 19 19 19 19 19 20 20 20 19 20 20 22
20 19 20 20 18 17 17 17 18 17 17 17 18 19 22 24 24 24 22 22 22 21 21 21 20 20 18 19 19 19 19 19 18 19 20 19 19 19 19 19 19 20 20 20 20 19 20 21 20
22 20 18 18 18 18 19 19 18 17 18 18 19 20 21 21 23 23 23 22 22 22 21 21 21 20 19 18 18 19 19 19 19 19 19 19 19 19 19 18 19 20 20 20 19 19 21 21 21
22 21 19 18 18 19 19 19 20 18 19 21 21 20 20 22 22 23 23 22 22 21 21 21 21 21 20 19 18 19 19 19 19 19 19 19 19 19 19 19 19 19 20 19 20 19 20 21 21
22 21 18 21 20 20 17 19 20 21 20 21 20 21 21 21 22 23 24 23 22 21 21 21 21 21 20 20 20 19 19 20 19 19 19 19 19 20 19 19 19 19 19 19 19 20 20 20 20
26 23 24 17 18 19 18 18 17 21 21 21 20 21 21 22 23 23 23 23 22 22 21 20 20 20 21 20 19 19 20 19 19 19 20 19 20 20 19 19 19 19 19 19 19 19 20 20 20
27 27 24 20 19 19 19 17 17 18 22 22 22 22 22 23 24 23 22 22 22 23 22 21 20 21 21 21 20 19 19 19 20 19 19 20 20 19 19 19 19 19 19 19 18 19 19 19 20
25 24 24 23 22 20 20 19 18 19 21 20 21 23 23 22 23 24 23 23 23 23 22 21 20 21 20 21 20 19 19 19 19 20 19 20 20 20 20 20 19 18 19 19 19 19 19 19 19
26 26 24 21 22 22 20 21 23 20 21 23 23 22 23 23 23 23 23 22 23 23 22 22 21 21 21 20 20 20 20 19 19 19 19 19 20 20 20 20 18 18 19 19 19 19 19 19 19

GFSSGP_850_temp_123.txt.gz
Temp
20 19 18 17 18 18 21 23 24 23 23 24 22 23 21 19 21 18 20 19 18 18 18 18 17 17 18 18 18 18 18 18 18 18 18 18 18 18 18 18 18 17 17 17 18 18 18 17 17
19 18 18 18 19 21 20 23 23 24 24 24 23 22 20 18 18 19 18 19 18 18 18 17 17 18 18 18 18 18 18 18 18 18 17 17 18 17 17 18 17 17 17 17 17 17 17 17 18
19 18 19 17 19 21 21 23 22 23 24 23 22 21 19 17 18 19 19 19 19 19 18 17 17 18 18 18 18 17 18 18 17 17 17 18 17 17 18 18 18 18 18 17 17 17 17 17 18
19 19 19 18 21 22 23 22 24 24 23 23 21 20 18 19 19 19 19 19 19 19 18 18 18 18 18 17 17 17 18 18 17 17 18 18 18 18 17 18 19 18 18 18 18 17 17 17 17
20 17 17 18 21 21 24 24 23 23 22 22 21 19 18 18 19 19 19 19 20 19 18 18 18 17 18 18 18 18 17 18 17 17 17 18 18 17 18 18 19 18 18 18 18 18 18 18 18
18 17 18 20 21 21 23 24 24 22 21 20 19 18 17 19 20 19 19 19 19 19 18 18 18 18 18 17 18 18 18 18 17 17 17 18 18 17 17 18 18 18 18 18 17 17 18 18 18
18 17 18 19 20 22 23 23 22 22 22 21 20 17 16 18 19 19 19 19 19 19 18 18 18 18 17 17 17 18 18 17 17 17 18 17 17 17 17 18 18 18 18 18 17 17 17 17 17
21 19 20 20 20 19 21 22 22 22 21 21 20 17 17 18 19 18 18 18 18 18 18 19 18 18 17 18 18 18 18 18 18 18 17 18 18 18 18 18 19 19 19 18 17 17 18 18 18
21 19 19 18 19 20 22 23 23 23 21 21 21 20 19 19 18 18 18 18 18 18 18 18 18 17 17 18 17 17 17 18 18 18 18 18 18 18 18 19 19 19 19 18 18 18 18 18 18
20 18 19 19 19 18 20 23 22 22 22 21 20 19 19 18 18 18 18 18 18 18 18 18 18 18 18 17 17 17 18 18 18 18 18 18 18 18 18 19 19 19 19 19 18 18 18 18 18
20 21 21 19 20 20 20 22 23 22 21 21 19 18 19 18 20 19 19 19 19 18 17 18 18 18 18 18 18 18 18 18 18 18 18 18 18 18 18 18 19 19 19 19 19 19 19 19 18
21 24 21 21 19 20 20 21 21 22 22 22 21 20 19 19 20 19 19 18 18 18 18 18 18 18 18 18 18 18 18 18 18 18 18 18 18 19 19 18 19 19 19 19 19 19 19 19 19
21 22 20 19 19 20 20 19 18 20 22 21 20 20 20 20 19 20 20 19 18 18 18 18 18 18 18 18 18 18 18 18 18 18 18 18 18 19 19 18 19 19 19 19 19 19 20 20 20
21 20 19 18 18 18 19 16 18 21 21 21 20 19 20 20 20 19 19 19 19 18 18 18 18 18 18 18 18 17 18 18 18 18 18 18 19 19 19 19 19 19 19 19 19 20 20 20 20
21 19 19 18 18 18 19 18 17 21 21 20 20 19 19 20 20 20 20 20 19 18 18 19 18 18 18 18 18 18 18 18 18 18 18 18 19 19 19 19 19 19 19 19 20 20 20 20 20
20 20 19 18 18 18 18 18 18 18 21 21 21 20 19 20 21 21 21 20 19 19 19 19 18 18 18 18 18 18 18 18 18 18 18 18 18 19 19 19 19 19 20 20 20 21 20 21 20
17 18 19 18 17 17 18 18 17 19 22 22 22 21 20 20 20 21 21 20 19 20 19 19 19 19 18 18 18 18 18 18 18 18 18 18 18 18 19 19 19 19 20 20 20 21 21 21 21
19 18 19 18 17 16 18 17 17 17 20 22 22 22 21 20 21 21 21 20 19 19 19 19 19 19 18 18 18 18 18 18 19 18 18 18 18 18 19 19 19 20 20 20 20 21 21 21 21
19 19 18 18 17 17 17 17 17 16 16 20 20 21 20 20 21 21 21 20 19 19 19 19 19 18 18 18 18 18 19 19 19 19 19 18 19 19 19 19 20 19 19 20 20 21 21 21 21
20 19 18 18 17 17 16 17 16 17 17 17 19 21 21 20 20 20 20 20 20 20 20 19 19 18 18 18 18 18 19 19 19 19 18 19 19 19 19 19 19 20 20 20 20 21 21 22 21
20 19 18 18 17 17 17 17 16 16 17 18 19 20 21 21 20 20 20 20 20 20 20 20 20 19 19 18 18 18 18 18 18 18 18 19 19 19 19 19 19 19 20 20 20 21 21 22 21
19 21 20 20 18 18 17 18 16 16 17 17 18 19 21 20 21 21 20 19 20 20 20 20 20 19 19 19 18 19 18 18 19 19 18 18 19 19 19 19 19 19 20 20 20 21 21 21 22
20 20 19 19 17 18 17 17 18 16 16 17 18 19 20 20 19 20 20 20 21 20 20 20 20 19 19 19 19 19 19 19 19 18 18 18 18 19 19 19 19 19 19 20 20 20 20 20 22
20 18 18 17 17 16 18 18 19 16 17 18 19 19 19 20 19 20 21 20 21 20 20 20 20 20 20 19 19 19 19 19 19 18 18 18 18 18 18 18 19 19 19 19 20 20 20 20 21
18 17 16 18 17 17 17 17 18 19 19 19 18 19 20 19 20 19 20 20 20 20 20 20 20 20 20 19 19 19 19 19 19 19 19 18 18 18 18 18 18 19 19 19 19 20 20 20 20
18 18 19 18 18 19 17 18 19 21 21 21 20 21 20 19 20 20 20 21 21 21 20 20 20 19 19 20 20 19 19 19 19 19 19 19 19 19 19 18 18 19 19 19 19 19 20 20 20
19 19 19 17 16 17 18 19 19 19 20 19 20 20 19 19 20 20 21 21 21 21 21 21 20 20 19 19 20 20 19 19 19 19 19 19 19 19 19 19 19 18 18 18 18 19 19 19 20
20 20 19 17 18 18 18 18 18 19 18 18 20 19 19 20 20 21 21 21 22 22 22 21 21 21 20 20 19 20 20 19 19 19 19 19 19 19 19 19 19 19 18 18 18 18 19 19 19
21 20 17 17 16 18 19 18 18 19 18 18 19 19 19 21 21 20 21 21 22 21 22 21 21 21 21 20 20 19 19 19 19 20 19 19 19 19 19 19 19 19 19 18 18 18 18 18 18
22 22 18 18 20 16 19 20 18 19 18 19 19 19 20 20 21 20 21 21 21 21 22 22 21 21 21 21 20 20 19 19 19 19 19 19 19 19 19 19 19 19 19 18 18 18 18 18 19

GFSSGP_850_temp_129.txt.gz
Temp
20 19 19 18 22 23 23 24 24 23 22 22 21 22 22 19 21 22 18 19 18 18 18 18 18 18 18 18 18 17 18 18 18 18 17 17 17 17 17 17 17 17 17 17 16 17 17 17 17
20 19 19 18 23 24 23 24 24 24 23 22 21 21 21 19 16 17 18 18 18 18 18 18 18 18 18 18 18 18 18 18 18 18 17 17 17 17 17 17 17 17 17 17 18 18 18 17 17
19 19 19 20 22 23 23 24 24 23 22 22 21 20 19 18 16 16 18 18 18 18 18 18 18 18 18 18 18 18 18 17 17 17 17 17 17 17 17 17 17 17 17 17 17 17 17 17 18
19 19 19 21 23 23 23 24 24 23 22 21 21 20 17 17 17 18 19 18 18 18 18 18 18 18 17 18 18 18 18 17 17 17 17 17 17 17 17 17 17 17 17 17 17 17 17 17 18
19 19 21 22 22 23 24 24 24 24 22 21 21 20 18 17 18 19 19 18 18 18 17 17 18 17 18 18 18 18 18 18 18 18 17 17 17 17 17 18 17 17 17 17 17 18 18 18 18
20 19 22 22 22 23 24 23 23 22 21 20 20 20 17 17 19 19 19 18 18 18 17 16 17 18 17 18 18 18 18 18 18 17 17 17 17 17 17 18 18 17 17 17 18 18 18 18 18
21 20 20 22 22 22 23 23 23 22 22 21 20 20 16 16 18 19 18 18 18 17 17 16 17 17 17 18 17 18 18 18 17 17 17 17 17 17 17 18 18 17 17 18 18 18 18 18 18
19 21 20 20 20 21 22 22 21 22 20 19 20 21 18 16 18 18 18 18 18 17 16 16 16 16 17 17 18 17 17 17 18 17 17 17 17 17 18 18 18 18 18 18 18 18 18 18 18
20 20 20 20 20 19 21 23 21 21 20 21 19 20 19 19 18 18 18 18 18 17 17 17 16 17 17 18 17 17 18 17 17 18 17 17 17 17 16 18 18 17 18 17 17 18 18 18 18
21 22 22 21 19 18 20 21 21 21 21 19 18 19 19 19 17 16 16 17 18 16 17 17 17 17 18 18 18 18 17 17 17 17 18 17 18 18 16 17 18 17 18 18 18 18 18 18 19
21 22 21 20 19 19 19 21 22 22 22 21 19 18 18 17 17 17 17 18 18 16 17 17 17 17 17 17 17 17 17 17 17 18 18 18 18 18 17 17 18 18 18 18 18 18 18 19 19
23 21 21 19 19 18 20 21 22 21 21 20 19 19 18 17 18 18 17 18 18 18 17 17 17 17 17 17 17 18 17 17 18 18 18 18 18 18 17 18 18 18 18 19 18 19 19 19 19
23 21 19 19 19 18 19 18 21 20 20 19 18 18 18 18 18 18 17 18 18 18 18 17 17 17 17 17 17 17 17 17 18 18 18 18 18 18 18 18 18 19 19 19 19 19 19 20 20
20 20 19 19 19 19 18 17 19 18 19 19 18 18 18 18 18 17 18 18 18 18 18 18 17 17 17 17 17 17 18 18 18 18 18 18 18 18 18 19 19 19 19 19 19 19 20 20 20
20 20 20 19 19 18 17 17 18 17 19 19 19 19 18 18 17 17 18 18 19 18 18 18 17 17 17 17 17 17 18 18 18 18 18 18 18 18 18 19 19 19 19 20 20 20 20 20 20
21 22 21 19 19 18 19 19 16 17 17 20 19 19 18 18 18 18 18 18 18 18 18 18 17 17 17 17 17 18 18 18 18 18 18 18 18 18 19 19 19 19 20 20 20 20 20 20 20
21 22 21 19 18 18 19 19 19 17 16 20 20 19 19 19 18 18 19 19 19 18 18 18 18 17 17 17 17 18 18 18 18 18 18 18 18 18 19 19 19 19 20 20 20 21 20 20 20
22 22 21 20 19 19 19 17 16 16 16 17 20 20 20 20 20 19 19 19 19 18 18 18 18 18 17 17 17 18 18 18 18 18 18 18 18 19 19 19 19 20 20 20 20 21 21 21 21
23 22 21 19 19 19 19 18 17 16 16 17 19 21 20 20 20 19 19 19 19 18 18 18 18 18 18 18 18 18 18 18 18 18 18 18 18 18 19 19 20 20 20 20 20 21 21 21 21
23 22 21 20 18 19 19 19 17 17 18 20 19 20 21 20 20 19 18 20 20 19 18 18 18 18 18 18 18 18 18 18 18 18 18 18 18 18 19 19 20 20 20 20 20 21 21 21 21
22 23 22 22 19 18 19 20 18 17 16 17 18 19 20 21 20 19 19 19 20 19 19 18 18 18 18 18 18 18 18 17 18 17 18 18 18 18 19 19 19 20 20 20 20 21 21 21 21
23 23 22 20 21 21 20 19 19 20 18 17 19 20 20 20 20 20 19 19 20 20 19 18 18 18 18 18 18 18 18 18 18 18 18 18 18 18 18 19 19 20 20 20 20 20 21 21 21
24 22 22 22 21 20 19 19 21 19 19 18 18 19 21 20 20 20 19 20 20 20 19 19 18 18 18 18 19 19 19 18 18 18 18 18 18 18 18 18 19 19 20 20 20 20 21 21 21
22 21 20 20 20 21 21 21 23 19 21 21 20 20 21 21 20 20 20 19 20 20 19 19 18 18 18 19 19 19 19 19 18 18 18 18 18 18 18 18 18 19 19 19 19 20 20 20 21
23 23 21 20 21 22 20 20 23 22 22 23 21 20 20 21 21 20 19 19 19 20 20 19 19 18 18 18 18 19 19 19 18 18 18 18 18 18 18 19 18 18 19 19 19 19 19 20 20
23 25 23 21 22 22 19 21 24 22 22 22 21 21 20 20 21 20 19 20 20 21 20 20 19 19 19 18 18 18 19 19 19 19 19 18 19 19 18 18 18 18 18 19 19 19 19 19 20
22 22 22 22 20 21 22 22 22 23 22 21 21 20 19 20 20 20 20 20 21 21 21 20 20 19 19 19 19 18 18 19 19 19 19 19 19 19 18 18 18 18 18 19 19 19 19 19 20
23 23 22 22 21 22 23 22 22 20 20 20 21 20 20 19 19 20 20 20 21 22 21 21 20 20 19 19 19 19 19 19 19 19 19 19 18 18 18 19 19 18 18 19 19 19 18 19 19
21 23 22 22 22 23 23 23 20 18 19 19 21 20 20 20 19 20 20 21 22 22 21 21 21 20 19 19 19 19 19 19 19 19 19 19 19 18 18 18 19 19 19 19 19 18 19 19 19
22 22 24 24 23 21 22 24 19 18 19 19 21 21 20 20 20 19 19 20 22 22 21 22 21 21 20 20 19 19 19 19 19 19 19 19 19 19 19 19 19 19 18 18 18 18 18 18 18

GFSSGP_850_temp_132.txt.gz
Temp
20 18 17 19 25 29 27 27 28 26 26 26 25 25 25 23 25 23 20 19 19 19 17 17 18 18 18 18 18 17 17 17 17 17 17 17 17 17 17 17 17 17 17 17 17 17 17 17 17
18 18 18 22 28 28 27 28 27 27 26 25 24 24 25 23 21 20 19 19 19 19 19 17 18 18 18 17 18 17 18 18 17 17 17 17 17 17 17 17 17 17 17 18 18 18 17 17 17
19 19 21 26 28 28 27 28 28 26 25 25 24 24 23 22 20 20 19 18 19 19 19 18 18 18 18 18 17 18 17 17 17 17 17 17 17 17 17 17 17 17 18 18 18 18 18 18 18
19 19 20 25 27 27 28 28 27 26 25 24 24 23 21 21 20 20 18 19 19 19 19 18 18 18 18 18 18 18 17 18 17 17 17 17 17 17 17 17 17 17 17 17 18 17 17 17 18
20 20 23 26 26 27 28 27 27 27 25 24 25 24 21 19 19 19 18 19 19 20 18 17 18 18 18 18 18 18 18 17 17 17 17 17 17 17 17 17 17 17 17 17 18 18 18 18 18
23 23 25 25 25 26 27 27 26 26 25 24 24 23 20 19 19 19 19 19 19 20 19 17 18 18 18 19 18 18 18 18 17 17 17 17 17 17 18 18 17 17 18 18 18 18 18 19 19
25 25 24 25 25 25 26 26 25 26 25 25 24 25 20 20 19 19 19 19 19 19 19 18 17 17 18 18 18 17 17 18 17 17 17 17 17 17 18 18 18 18 18 18 18 18 18 18 19
24 24 22 23 24 24 24 25 25 25 24 23 24 24 21 20 19 18 19 19 19 19 18 17 18 18 17 16 17 17 17 17 18 17 17 17 17 18 18 18 18 18 18 18 18 18 18 18 18
23 23 22 23 22 23 24 25 23 23 23 24 23 24 22 19 19 19 19 19 18 18 18 17 18 17 17 18 18 17 17 18 18 17 17 17 18 17 17 18 18 18 18 18 18 18 18 18 18
26 25 24 23 21 23 23 24 22 24 24 23 22 21 20 19 19 20 20 19 19 18 18 17 18 16 16 16 17 18 18 17 17 17 16 17 17 17 17 18 18 18 18 18 18 18 18 18 19
26 24 25 23 21 20 23 24 24 25 25 24 23 21 20 20 20 20 20 20 19 18 18 18 16 17 17 18 16 18 18 17 16 16 17 16 17 18 18 17 17 18 18 19 18 18 19 18 19
25 24 24 21 21 21 23 23 24 25 24 24 23 22 21 21 21 21 21 20 19 18 18 18 17 16 18 17 16 17 17 17 17 16 16 16 17 17 18 18 17 18 18 18 18 20 19 19 18
26 24 22 22 22 19 20 22 23 22 23 23 23 22 21 22 21 21 21 20 19 19 18 18 16 17 18 17 17 17 17 18 17 17 17 17 18 17 18 18 18 18 19 19 19 19 19 19 20
25 24 23 22 22 20 18 19 20 19 22 22 22 22 22 22 21 20 20 20 19 19 18 18 17 16 18 17 16 17 17 17 17 17 17 18 18 17 18 18 19 19 19 19 19 19 20 20 20
24 24 24 23 22 21 17 17 19 18 22 23 22 23 22 22 21 21 20 20 19 19 18 17 17 16 16 17 17 17 17 17 17 17 18 18 18 19 18 18 19 19 19 20 19 19 20 21 21
25 26 24 23 22 21 20 19 18 18 19 23 23 23 22 22 21 21 20 20 19 19 18 17 18 17 16 16 16 17 17 17 18 18 17 18 19 19 18 19 19 19 19 19 20 20 21 21 21
26 27 25 22 22 22 22 22 18 17 17 20 24 23 23 22 21 21 20 20 20 19 18 17 17 17 16 16 16 16 17 17 18 17 18 18 18 19 18 19 19 19 19 20 20 20 21 21 22
27 27 26 24 22 22 22 22 21 17 17 17 23 24 23 23 22 21 21 20 20 19 18 17 16 16 16 16 17 17 17 17 17 18 18 18 18 18 18 19 19 19 20 20 20 20 20 21 22
27 27 26 25 22 23 23 23 22 19 17 17 20 24 24 24 23 22 21 20 20 19 18 17 16 16 16 16 17 18 18 18 17 18 17 18 17 18 19 19 19 19 20 20 20 20 21 21 21
27 26 25 24 23 23 23 23 22 20 19 17 18 21 24 24 24 22 21 21 20 19 18 17 17 17 17 17 18 18 18 18 18 18 17 17 17 18 18 19 19 20 20 20 20 20 21 21 21
27 27 26 25 24 23 23 23 21 20 19 17 19 22 24 25 24 23 22 21 20 19 19 18 17 17 17 17 17 17 17 17 17 17 18 18 18 18 19 19 19 20 20 20 20 21 21 22 21
27 27 26 24 25 25 25 26 23 20 20 18 22 22 24 25 24 23 22 21 21 20 19 18 17 17 17 17 18 18 18 19 19 18 18 18 17 18 19 19 20 20 19 19 20 20 20 21 22
27 27 26 26 25 26 26 25 25 22 23 22 22 23 24 24 24 24 23 22 22 20 19 19 17 18 17 17 18 18 19 19 18 19 17 18 18 19 18 19 19 20 19 20 20 21 21 20 21
27 26 25 25 26 25 27 26 27 24 24 26 24 23 24 25 25 24 23 22 22 21 20 19 18 18 18 18 17 17 18 19 19 18 18 19 19 18 19 19 19 19 19 20 19 20 20 20 20
26 27 26 25 25 26 26 25 27 26 26 26 26 24 24 25 25 24 23 23 22 21 20 19 18 18 17 17 17 17 17 18 17 18 19 19 19 19 18 19 19 18 19 19 19 20 20 20 20
26 28 27 23 23 24 25 24 27 27 25 25 26 26 22 23 25 25 23 23 22 21 20 20 18 18 17 17 17 17 18 18 18 18 19 19 20 19 19 18 18 18 19 19 19 18 19 19 19
27 26 29 26 26 26 28 27 27 27 26 25 25 25 24 23 25 25 24 23 22 21 20 20 19 18 18 18 17 18 18 18 19 19 18 18 18 20 18 18 17 17 18 19 18 19 18 18 18
26 28 26 27 23 23 27 27 26 25 24 24 25 24 24 22 21 24 24 23 22 22 21 20 19 19 18 18 18 18 17 18 18 18 18 18 18 19 18 17 17 17 17 18 19 19 18 18 18
26 26 27 27 26 22 24 23 25 22 23 24 24 24 22 22 21 23 23 23 22 22 21 20 20 19 18 18 18 18 18 18 18 18 18 18 18 17 18 18 17 17 17 17 18 18 18 18 18
26 26 27 25 21 26 18 25 24 23 23 23 24 23 23 21 19 21 22 22 22 22 22 21 20 19 19 19 18 18 18 18 18 18 18 18 18 19 19 18 18 18 17 17 17 18 18 18 18

GFSSGP_850_temp_135.txt.gz
Temp
20 19 20 22 24 27 29 28 29 29 29 29 28 28 28 26 26 24 23 22 21 20 17 17 17 17 17 17 17 17 17 17 17 17 17 17 17 18 18 17 17 17 17 18 18 18 18 18 18
20 21 21 24 24 28 28 30 28 28 29 27 27 28 27 25 24 23 22 22 21 20 19 17 17 18 18 17 18 18 17 17 17 17 18 17 18 17 17 17 18 18 18 18 18 18 18 18 18
19 21 24 23 24 28 28 29 29 29 28 27 27 26 26 24 24 23 22 22 22 19 18 18 18 18 18 18 18 18 18 18 18 18 18 17 17 18 17 17 18 18 18 18 18 18 18 18 18
22 20 22 23 27 30 30 30 29 29 27 27 26 26 25 24 24 22 22 22 21 20 18 18 18 18 18 18 18 18 17 18 18 18 18 17 17 17 17 17 18 18 18 18 18 18 18 18 18
22 22 27 19 30 30 31 30 29 28 27 27 27 26 24 23 23 22 22 23 22 21 19 16 18 18 18 18 18 17 17 18 18 17 17 18 18 17 17 17 17 18 18 18 18 18 18 18 18
25 27 20 28 28 29 30 29 28 27 28 27 26 25 24 22 22 22 23 23 22 21 20 17 18 18 18 18 17 18 18 18 17 17 18 18 18 18 17 18 18 18 18 18 18 18 18 18 18
26 24 26 26 27 27 28 28 28 26 27 28 27 25 23 23 22 22 23 23 23 21 21 19 17 18 18 17 18 18 17 18 18 18 18 18 18 18 18 18 18 18 18 18 18 18 18 19 19
27 26 21 27 25 25 28 27 27 26 28 27 27 26 25 23 22 22 23 22 22 22 21 20 19 18 17 16 18 18 18 18 18 18 18 18 18 18 18 18 18 18 18 18 18 18 19 19 19
26 22 19 22 23 22 27 27 26 26 26 27 26 26 24 22 22 23 22 22 22 21 19 19 19 18 18 18 18 18 18 18 18 18 18 18 19 18 17 17 18 18 18 18 18 19 19 20 20
25 24 25 24 21 21 26 23 26 27 26 26 26 25 23 22 22 23 23 22 22 20 20 20 20 18 18 18 17 17 16 17 17 17 18 19 18 18 18 18 18 18 19 19 19 19 20 19 20
27 26 27 26 22 23 25 26 25 26 26 26 26 24 23 23 23 23 23 23 22 21 20 19 18 18 17 17 18 17 17 17 17 17 18 18 18 19 19 19 19 19 19 19 20 20 20 20 21
27 27 27 25 22 24 25 25 26 24 26 27 25 24 23 23 24 24 24 23 22 21 20 19 18 17 18 18 18 17 18 19 19 18 17 18 20 19 20 20 19 19 20 20 20 21 20 20 20
26 26 25 25 24 22 24 23 25 25 25 26 25 24 24 24 23 23 23 23 21 20 20 19 17 17 17 18 18 18 19 20 18 18 18 18 18 19 20 19 20 20 21 21 21 21 21 20 21
28 27 26 25 24 23 23 20 23 23 24 26 25 25 24 23 23 23 23 22 21 20 20 19 18 17 17 18 18 19 20 19 19 19 18 17 20 18 19 20 20 21 21 21 21 20 22 22 21
28 27 27 25 23 23 20 18 21 21 21 26 25 25 24 23 24 23 22 21 21 21 20 20 19 18 17 17 17 19 19 20 20 19 17 18 19 19 20 20 20 21 20 20 20 20 22 22 22
29 29 26 26 25 23 23 19 17 19 20 24 25 24 24 23 23 23 23 21 20 21 20 19 20 19 17 18 18 19 20 20 20 19 18 18 18 18 19 20 21 21 21 22 22 22 23 23 23
30 25 21 25 25 24 24 22 19 19 19 21 22 24 24 24 22 22 23 21 22 21 20 19 19 19 18 18 18 19 19 20 20 20 20 18 18 19 20 21 20 20 22 22 22 22 22 23 23
26 29 28 25 26 25 24 23 22 18 18 19 20 21 24 24 22 22 23 22 22 20 19 18 18 19 18 17 18 19 18 19 20 20 20 19 19 18 19 20 20 20 22 22 22 22 22 23 23
29 29 27 24 26 26 25 25 23 19 18 19 19 20 23 23 23 22 23 23 21 21 19 18 17 17 17 18 18 19 19 19 20 20 19 18 18 18 20 20 20 19 21 20 20 21 21 23 22
29 29 28 28 27 26 25 26 25 22 22 20 18 22 21 25 23 23 22 23 23 21 19 17 17 17 18 18 19 19 20 20 20 19 18 18 18 18 19 19 20 20 21 20 20 21 22 23 23
30 29 27 27 24 27 26 26 25 24 22 20 19 20 21 22 22 23 22 24 23 22 20 18 17 17 18 19 19 19 20 19 19 19 19 19 18 18 18 19 19 20 20 21 20 21 21 22 23
29 30 28 27 27 25 28 27 26 25 23 20 18 20 22 23 25 23 23 23 24 22 21 19 18 17 18 18 19 19 19 20 20 20 20 19 18 19 18 18 19 21 20 18 21 21 21 22 23
27 28 28 29 28 29 30 28 27 26 24 22 20 22 24 24 25 24 25 23 24 23 21 20 19 18 18 18 19 19 20 20 20 21 20 20 19 19 19 18 19 20 21 20 20 20 20 21 21
30 29 29 28 29 28 30 29 22 24 26 26 23 24 25 24 26 27 25 24 23 23 22 21 19 18 18 18 17 19 20 20 21 21 19 20 19 19 18 18 18 19 19 20 20 19 20 20 21
29 28 28 27 28 28 23 29 24 22 29 28 23 25 26 25 27 27 26 24 23 24 23 21 19 18 18 18 18 18 19 19 19 19 20 21 21 21 20 19 18 19 19 19 19 19 19 20 20
28 29 28 25 23 24 23 28 21 29 29 29 27 26 26 25 26 27 27 25 23 23 23 22 20 19 18 18 18 18 18 19 19 19 20 21 21 21 20 19 18 18 19 18 18 19 19 20 20
29 28 31 28 29 27 23 25 27 29 29 28 28 28 26 26 26 25 26 26 25 24 23 22 21 19 19 19 18 18 18 18 19 19 20 20 20 20 20 19 19 19 19 18 18 19 20 20 19
29 30 29 29 24 25 22 18 22 27 27 27 28 28 27 26 25 24 26 26 25 24 23 22 21 20 19 19 19 19 18 18 18 18 18 19 20 19 18 19 19 19 19 19 18 19 20 19 19
28 28 29 29 25 22 22 20 27 25 27 28 28 27 27 26 24 24 26 26 25 24 23 22 22 21 20 20 20 19 19 19 18 18 18 18 18 18 18 18 18 18 18 19 18 18 20 18 19
19 24 26 25 26 22 20 18 26 26 26 27 27 26 25 22 23 22 23 25 24 24 23 23 22 21 20 20 20 20 20 20 20 19 18 18 19 18 18 18 18 18 18 18 18 18 19 19 19

GFSSGP_850_temp_138.txt.gz
Temp
21 21 21 22 22 23 26 27 31 29 29 29 28 28 26 21 23 22 20 20 19 17 18 18 18 18 18 18 18 18 17 17 17 17 18 18 18 18 17 17 17 17 18 17 18 18 18 18 18
20 21 23 21 21 25 23 29 26 28 29 29 23 24 26 25 24 22 21 21 20 18 16 18 18 18 18 17 18 17 18 17 17 18 18 18 18 18 17 17 17 17 17 18 18 18 18 18 18
21 22 23 17 20 24 28 28 29 28 27 28 22 25 26 25 24 23 21 20 19 18 18 18 18 18 18 18 18 18 18 18 17 17 17 17 18 18 18 18 18 18 18 18 18 18 18 19 18
22 23 23 18 23 28 29 30 30 29 27 27 27 27 25 24 24 23 21 18 21 17 18 18 18 18 18 18 18 18 17 17 17 17 18 18 18 18 18 18 18 18 18 18 18 18 18 19 19
23 23 19 22 24 29 31 30 29 26 24 24 27 26 25 24 24 23 21 20 19 18 17 18 18 18 18 18 18 18 18 18 18 17 18 18 17 18 18 18 18 17 17 18 18 18 19 19 19
25 21 20 21 28 29 30 29 26 25 28 26 26 25 24 24 24 24 22 22 20 19 18 18 18 18 18 18 18 18 18 18 18 18 18 18 18 18 18 18 18 18 18 18 19 19 19 19 19
22 20 19 19 27 28 28 27 22 27 23 28 25 24 24 24 24 23 22 20 21 20 19 16 18 18 18 18 18 18 18 18 18 18 18 19 19 18 18 18 18 18 18 19 19 20 20 20 20
23 20 20 19 23 23 27 23 27 26 24 26 25 25 24 24 24 24 23 21 22 21 19 18 18 17 18 18 18 18 18 18 18 18 19 19 18 18 18 18 19 18 19 19 20 20 20 20 20
22 21 18 17 22 23 24 26 27 27 28 27 25 24 24 24 24 23 23 23 22 19 20 19 18 17 17 18 18 18 18 19 19 18 18 18 19 18 17 18 19 19 19 20 19 19 20 20 20
20 17 22 23 21 21 21 19 21 28 28 27 26 24 24 24 24 24 23 23 22 21 20 18 17 19 17 16 18 18 18 18 18 18 18 18 18 18 19 18 19 19 20 20 20 20 20 20 20
25 20 22 24 22 20 17 20 25 26 26 27 25 25 25 24 23 24 22 22 21 20 19 19 19 19 18 17 17 17 17 17 18 19 19 19 20 20 20 20 20 19 20 20 20 20 20 20 20
24 28 26 23 23 24 22 21 25 25 23 25 26 25 24 24 24 24 24 23 21 20 20 18 19 19 18 18 18 18 18 18 18 18 19 19 19 19 20 19 20 20 21 20 20 20 20 21 21
29 28 26 25 25 23 19 20 25 25 26 26 26 25 25 24 22 23 23 23 21 20 20 19 19 19 18 18 18 19 19 19 19 19 18 19 20 19 20 20 20 20 21 21 21 21 21 22 21
23 22 27 25 25 24 22 22 25 24 24 26 26 25 25 23 24 24 22 21 21 20 19 18 18 18 18 17 19 20 18 20 19 19 19 19 19 20 20 20 21 21 20 21 21 21 21 22 21
23 25 26 26 25 25 22 20 20 22 21 23 26 26 25 24 22 23 22 21 21 20 19 18 19 18 17 17 18 20 20 20 20 19 19 19 19 19 19 20 21 21 21 22 22 22 22 22 22
30 29 25 26 24 24 24 21 17 23 21 22 25 24 23 24 23 23 22 21 21 20 20 19 19 19 18 18 19 19 20 20 20 20 19 18 19 19 20 21 20 21 21 21 22 22 22 23 22
30 28 24 20 23 25 24 22 19 20 20 21 22 22 21 23 23 22 22 22 22 20 20 20 19 19 18 18 18 19 20 20 20 20 19 19 19 20 19 19 20 21 21 22 22 22 23 23 23
25 27 27 20 25 26 24 24 21 20 20 21 22 22 20 20 24 23 22 22 21 21 20 20 19 18 18 19 19 19 20 20 20 20 19 20 19 19 19 19 20 21 21 20 22 22 23 23 23
27 28 26 25 26 26 26 25 23 21 19 20 21 23 23 22 24 24 21 23 21 20 20 19 19 18 19 18 19 19 20 20 20 20 19 20 19 19 18 19 20 20 20 20 21 22 22 23 23
29 29 28 27 28 27 27 24 24 22 21 22 21 20 22 22 23 24 23 23 21 21 20 18 18 18 18 19 19 19 20 20 20 20 19 19 18 19 20 19 20 18 18 20 21 21 22 22 23
30 29 27 26 27 28 28 26 23 24 22 22 22 22 20 20 20 23 23 22 21 20 20 19 19 18 18 18 19 20 20 20 20 20 19 19 18 19 19 20 19 18 19 20 20 20 21 22 23
29 30 29 27 27 27 28 25 25 24 23 23 22 20 20 21 19 20 23 23 22 21 20 20 20 18 18 19 19 20 20 20 20 20 20 19 19 19 19 19 19 18 19 18 20 20 21 23 21
30 30 29 28 27 29 30 28 27 24 22 22 23 22 21 23 21 20 22 24 23 22 21 20 20 19 18 19 19 19 20 20 20 20 20 19 19 19 19 19 18 18 20 21 19 21 21 20 20
31 29 29 27 28 27 30 30 25 22 21 24 23 22 21 23 24 22 22 23 24 22 21 20 19 19 18 18 18 19 20 20 20 20 20 20 19 19 19 19 19 19 20 19 20 21 22 22 22
30 29 27 27 28 27 27 28 24 26 23 26 25 22 22 23 25 22 22 23 23 23 22 21 20 19 19 19 18 19 19 20 20 20 20 21 20 20 20 20 20 19 20 20 20 20 20 21 22
30 29 28 25 23 20 24 24 26 28 27 27 26 23 23 25 25 24 23 24 24 22 23 21 20 20 19 19 18 19 19 19 19 20 20 20 20 20 21 20 20 20 19 19 20 20 19 20 20
29 28 31 28 28 24 23 23 23 27 30 30 26 24 25 25 26 24 23 24 24 24 22 22 21 20 19 19 19 19 20 19 19 20 20 20 20 20 19 19 19 19 20 19 19 19 19 19 20
30 31 28 29 26 24 21 19 19 19 16 29 27 22 25 26 25 25 24 23 24 23 23 22 22 20 20 19 19 19 19 20 19 19 19 20 20 20 20 19 19 19 19 19 19 19 19 20 20
29 28 26 26 24 25 22 18 16 16 17 25 29 25 27 26 25 25 26 24 23 23 23 23 22 20 20 19 19 19 19 19 19 19 19 20 20 19 19 20 19 19 19 19 19 19 19 19 19
28 26 25 24 17 20 23 17 16 16 17 27 28 27 25 27 27 25 25 24 24 22 23 23 22 21 21 20 20 19 19 19 19 19 19 19 20 19 20 18 19 18 19 19 19 19 19 19 19

GFSSGP_850_temp_141.txt.gz
Temp
21 20 19 19 19 20 24 25 28 26 24 25 25 24 24 21 22 18 19 18 19 18 18 18 18 18 17 18 19 18 18 17 17 18 17 18 18 18 17 17 18 17 18 18 18 18 18 19 18
21 21 19 17 18 21 23 26 25 24 24 25 25 23 22 21 20 18 18 18 19 18 18 18 18 18 17 19 19 18 17 17 18 18 17 17 18 18 17 17 18 18 18 18 18 18 18 18 17
22 22 21 17 18 22 23 26 26 25 26 25 24 24 23 20 19 18 18 18 19 19 18 18 18 18 19 18 18 17 18 17 18 18 18 17 17 18 18 18 17 18 18 18 18 18 19 18 18
22 22 19 19 20 25 27 27 27 26 24 25 25 24 23 21 20 19 19 18 18 19 18 18 18 19 18 18 18 18 18 18 18 18 18 18 18 18 18 18 18 18 18 18 18 19 19 19 18
20 21 18 19 22 24 28 27 27 25 22 24 24 24 22 22 21 21 21 19 19 19 19 17 18 18 18 18 18 18 18 18 18 18 18 18 18 18 18 18 18 18 18 18 19 19 19 19 18
19 19 19 19 20 21 26 26 25 26 23 25 24 24 21 21 21 21 21 20 20 20 19 18 18 18 18 18 18 18 18 18 18 18 18 18 18 18 18 18 18 18 18 19 19 19 19 19 19
17 17 18 18 18 18 24 26 25 24 26 24 24 23 23 20 20 20 19 18 20 19 19 18 18 18 18 18 18 18 18 18 18 19 19 18 18 18 19 19 19 19 19 20 20 20 20 19 19
16 17 18 18 18 20 22 23 25 23 21 24 24 23 23 21 21 19 19 19 18 19 20 19 18 18 18 17 18 18 18 18 19 19 19 19 18 18 19 19 19 20 20 20 20 20 20 20 20
17 18 17 17 17 19 18 21 25 25 25 25 25 24 24 22 21 20 20 19 18 18 18 19 18 17 18 18 18 18 18 18 19 18 18 18 19 19 19 19 20 20 20 20 21 21 20 20 20
18 18 20 19 20 19 18 18 19 25 26 24 24 24 24 22 22 21 19 20 19 18 18 18 18 18 18 18 19 19 18 17 17 18 18 18 19 19 19 20 20 20 19 19 19 19 20 20 21
18 20 21 21 19 19 17 19 20 22 23 24 24 24 24 23 23 23 20 21 20 19 20 18 18 17 18 18 18 18 18 18 18 18 18 19 19 19 20 20 20 20 20 20 20 20 20 20 20
23 23 22 23 19 17 16 17 16 23 23 22 24 24 24 23 23 23 20 20 20 20 20 19 18 17 18 18 18 19 19 18 18 19 19 19 19 19 19 20 20 20 20 20 20 20 20 21 21
20 23 23 23 22 18 18 18 24 22 24 24 24 24 24 23 23 22 21 20 20 20 20 20 18 18 18 18 18 18 18 19 19 18 18 19 19 19 19 20 20 20 20 20 20 20 21 21 21
21 19 22 24 21 20 21 21 23 22 23 24 25 24 23 22 23 21 21 21 20 19 19 19 19 19 18 18 18 18 18 19 19 19 19 19 19 19 19 20 20 20 20 20 21 21 21 21 22
22 22 21 24 22 21 21 21 21 22 23 24 25 24 24 23 22 21 21 21 20 19 19 19 19 18 18 19 18 18 19 19 20 19 19 20 20 20 20 21 20 20 21 21 21 21 21 21 21
24 23 22 18 19 22 21 21 20 21 23 22 24 24 23 22 22 22 22 21 20 20 20 20 19 19 19 19 19 20 19 19 19 19 19 19 19 19 19 20 20 21 21 21 21 22 21 22 22
26 24 22 20 19 20 22 20 20 21 20 22 22 23 23 21 21 21 21 21 21 20 20 19 18 19 19 19 20 20 19 20 20 20 20 20 19 19 19 19 20 20 21 20 21 21 22 22 22
25 24 22 20 20 19 22 22 20 22 20 21 22 22 24 22 21 22 22 21 20 20 19 18 18 18 18 19 19 20 20 20 20 20 19 19 19 19 19 19 19 20 21 21 20 21 22 23 22
28 25 24 21 21 21 23 22 20 20 19 20 21 21 22 23 21 23 22 21 21 20 19 19 19 19 19 19 19 20 20 20 20 20 20 20 19 19 19 19 20 20 20 21 21 22 22 22 23
28 26 24 20 20 20 24 23 20 20 20 20 21 21 22 22 22 21 22 21 21 20 20 19 19 19 19 19 19 19 20 20 20 20 19 20 20 20 18 19 20 21 21 21 21 21 22 22 22
28 26 24 22 23 26 25 23 21 21 21 20 21 22 21 21 22 21 22 21 21 21 20 20 19 19 18 19 19 19 20 20 19 19 19 20 20 19 18 19 20 21 21 20 20 21 22 22 22
26 29 27 27 25 22 25 20 21 20 20 20 21 21 21 21 21 23 21 20 21 21 21 20 20 19 19 19 19 19 19 20 20 20 20 20 20 20 19 19 20 21 21 20 20 21 21 22 22
28 29 28 28 25 25 25 23 21 19 19 20 21 21 21 22 21 22 22 21 21 21 21 20 20 19 19 19 19 19 20 20 20 20 20 19 19 20 20 19 19 20 20 20 20 20 20 21 21
29 28 27 26 23 21 23 22 20 20 21 21 22 22 21 21 21 22 22 22 20 21 21 20 20 19 19 19 19 19 20 19 20 20 20 19 20 20 19 19 19 20 21 21 20 20 19 21 22
27 25 20 21 20 21 21 22 20 22 23 22 22 22 21 21 21 22 23 22 20 20 21 21 20 20 19 19 19 19 19 19 19 20 20 20 20 20 19 19 19 20 20 20 20 20 20 20 20
26 24 20 22 21 21 22 22 22 19 20 23 24 23 22 21 22 22 23 23 21 20 21 21 21 21 20 19 19 19 19 19 19 20 20 20 20 19 20 19 20 20 21 20 19 20 21 20 20
25 24 25 24 23 20 20 20 23 20 19 19 19 23 22 21 22 22 23 23 23 21 21 21 21 21 21 20 20 19 19 19 19 20 19 19 20 20 20 19 19 19 19 20 19 20 20 20 19
26 26 22 20 20 21 19 19 18 17 17 17 17 16 19 22 23 23 23 23 23 22 22 22 22 22 22 21 20 19 19 19 20 19 20 20 20 20 20 20 20 19 19 19 19 19 19 19 19
22 22 22 18 17 18 18 18 17 16 16 15 15 15 17 22 23 22 23 23 22 22 21 22 22 21 21 21 20 20 19 19 19 19 20 20 19 19 18 19 19 20 19 19 19 19 19 19 19
25 24 22 19 18 17 17 18 18 16 16 15 15 15 20 21 24 24 24 22 21 22 22 21 22 21 21 22 20 20 20 19 19 19 20 20 20 19 19 20 20 20 20 19 19 19 19 19 19

GFSSGP_850_temp_144.txt.gz
Temp
21 20 19 19 19 19 20 23 24 23 21 23 19 19 22 21 21 18 19 18 18 18 18 17 17 17 18 19 19 18 18 18 18 19 18 18 18 18 18 18 18 18 19 19 19 19 19 19 18
20 20 19 20 18 21 22 23 23 23 23 22 22 22 20 18 19 19 18 18 18 18 18 18 17 18 18 18 18 18 18 19 18 18 18 18 18 18 18 18 18 18 18 18 18 18 18 18 18
20 20 20 17 18 21 22 23 23 24 23 23 22 22 19 17 17 18 19 18 18 18 18 18 17 17 18 18 18 18 19 18 18 18 18 18 18 18 18 18 18 18 18 18 18 18 18 18 18
19 20 20 18 21 24 23 23 24 24 24 23 22 20 19 19 19 18 18 18 19 19 18 17 17 17 18 18 18 18 18 18 18 17 18 18 18 18 18 18 18 18 19 18 18 18 18 18 18
20 20 18 19 21 21 21 25 25 23 23 23 22 20 19 18 19 18 18 19 19 19 18 17 17 17 18 18 18 18 18 18 17 17 18 18 18 18 18 18 18 19 19 19 19 18 18 18 18
19 19 18 19 19 18 20 23 24 23 24 22 21 20 18 19 20 18 19 19 19 19 18 18 18 18 18 18 18 18 18 18 18 17 18 18 18 18 18 19 19 19 19 19 19 18 18 18 18
17 17 18 18 17 18 20 21 22 24 24 23 22 19 17 18 19 18 18 18 18 18 19 18 18 17 18 18 17 18 17 18 18 18 18 18 18 18 18 19 19 19 19 19 19 18 18 18 18
18 16 18 18 17 18 21 22 22 23 22 23 22 19 18 18 19 18 18 18 18 18 19 18 18 18 18 18 18 18 18 18 18 18 18 18 18 19 19 19 19 20 20 20 20 19 19 19 19
17 17 17 18 17 19 20 20 22 23 23 23 24 20 20 19 19 19 18 18 18 18 19 18 18 18 18 18 18 18 18 18 19 18 18 18 19 19 19 20 20 20 20 20 20 20 20 20 19
17 17 20 19 18 18 19 18 19 23 24 23 21 21 20 19 18 18 19 18 20 19 18 18 18 19 18 18 18 18 18 18 18 18 18 18 19 19 19 19 19 19 20 20 20 20 20 20 20
17 18 21 20 19 18 17 19 19 22 22 23 19 20 20 19 19 18 19 21 21 19 19 18 18 18 18 18 18 18 17 17 17 18 18 19 19 19 19 19 20 20 19 19 19 20 20 20 20
20 21 21 20 18 17 17 18 20 23 23 23 22 22 21 19 18 18 19 19 20 19 19 18 19 19 19 19 18 18 17 17 17 17 18 19 19 19 19 19 19 19 20 20 20 20 20 20 20
17 19 20 20 19 18 18 19 19 22 23 23 23 21 20 19 20 20 20 19 19 19 18 18 19 19 19 18 18 18 18 18 18 18 18 19 19 19 19 19 19 20 20 20 20 21 21 21 21
19 18 22 20 18 18 18 18 18 22 23 23 23 23 23 21 20 19 20 19 20 20 20 19 19 19 19 18 18 18 18 18 18 18 18 18 18 19 19 19 20 20 20 20 21 21 21 21 21
19 21 19 21 20 20 19 20 19 22 22 23 23 23 23 23 21 21 20 20 20 20 20 19 19 19 18 18 18 18 18 19 18 18 18 19 19 19 19 19 19 19 20 20 20 20 21 21 21
22 21 20 19 20 21 21 20 21 21 23 23 22 22 23 22 21 21 20 20 20 20 19 19 19 18 18 19 19 18 18 19 19 19 19 19 19 19 19 20 20 20 20 21 21 21 21 21 21
24 21 20 20 20 21 20 20 22 21 23 21 21 22 22 22 21 21 21 21 20 20 19 19 18 18 19 19 19 19 19 19 19 19 20 19 19 20 20 20 20 20 20 21 21 21 21 21 22
23 22 22 21 21 20 20 20 20 21 22 21 20 20 21 22 21 21 21 20 20 20 20 19 18 19 19 19 19 18 19 19 19 19 19 19 19 20 20 20 20 20 21 21 21 22 22 22 22
24 24 21 21 21 21 20 21 20 19 20 21 21 21 21 21 21 21 20 20 20 20 20 20 20 19 19 19 19 18 19 19 19 19 19 20 20 20 19 20 21 20 21 21 21 21 21 21 22
25 24 20 21 22 20 21 21 21 19 19 21 21 22 21 21 21 21 20 20 20 20 20 19 19 19 19 19 19 19 19 20 19 19 19 19 19 20 20 20 20 20 21 21 21 22 22 22 22
25 22 21 22 22 21 21 21 19 18 19 20 21 21 22 22 22 21 20 20 21 20 20 19 19 19 19 19 19 19 19 20 19 19 19 19 19 19 20 19 20 20 20 20 21 22 22 22 22
25 25 25 25 22 21 21 19 19 19 18 19 20 21 21 21 21 21 21 20 21 21 20 20 19 19 19 19 19 19 19 19 19 19 19 19 19 19 19 19 20 20 20 21 21 21 21 21 22
26 26 25 25 22 23 22 21 20 18 18 18 19 20 21 21 22 21 21 21 21 20 20 20 19 19 19 19 19 19 19 20 20 19 20 19 19 19 19 19 20 20 20 21 20 20 21 21 21
27 27 23 20 19 19 22 21 19 17 18 20 20 20 21 21 21 22 21 21 20 20 20 20 20 19 19 19 19 19 19 20 20 19 20 20 19 19 19 19 20 20 20 20 20 20 21 21 21
23 20 18 20 19 19 19 20 17 19 19 18 19 20 21 21 22 22 21 21 21 20 20 20 19 19 19 19 19 19 19 19 19 20 20 20 20 19 19 19 19 20 20 20 20 20 20 20 21
25 20 18 22 18 19 22 22 20 18 18 17 18 20 21 21 22 22 22 21 21 20 20 20 20 20 19 19 19 19 19 19 19 20 20 20 20 20 20 19 19 19 20 20 20 20 20 20 20
25 22 21 20 19 18 17 20 19 18 17 16 16 17 17 19 20 22 22 22 21 21 21 21 20 20 19 20 19 19 19 19 19 19 20 20 20 20 20 20 20 19 19 19 19 20 20 20 20
25 24 21 16 19 20 18 19 17 17 15 16 15 15 15 18 20 21 22 22 22 22 22 21 21 20 20 20 20 20 19 19 19 19 19 19 19 19 20 20 20 19 19 19 19 19 19 20 20
21 20 17 15 15 16 17 17 17 16 15 15 16 15 16 16 19 20 22 23 22 21 22 21 21 20 20 20 20 20 20 19 19 19 19 19 19 20 20 20 20 19 19 19 18 19 18 19 19
22 22 17 16 18 15 15 16 16 16 15 15 15 17 19 17 18 21 22 22 21 20 21 21 21 21 20 21 20 20 20 20 20 19 19 19 19 19 19 20 19 19 19 19 19 19 19 19 19

GFSSGP_850_temp_147.txt.gz
Temp
19 19 19 19 18 19 21 22 22 21 20 20 21 20 20 19 20 18 19 18 18 17 17 17 17 17 17 17 17 18 18 18 18 18 19 18 18 18 19 19 19 18 19 19 19 19 19 19 19
20 19 19 19 19 19 21 23 21 21 21 21 21 21 19 18 18 19 18 18 18 18 18 17 17 17 17 17 17 18 18 18 18 19 19 18 19 18 19 19 19 18 18 18 18 18 18 18 18
20 19 20 18 19 20 19 22 21 22 21 22 21 20 18 17 18 18 19 18 18 18 17 17 17 17 17 17 18 18 17 18 19 19 18 18 18 18 18 18 18 18 18 18 18 18 18 18 17
20 20 19 18 21 21 23 22 23 22 22 22 21 19 18 18 18 19 19 18 18 18 18 18 17 17 17 17 18 18 18 18 19 18 18 18 18 18 18 18 18 18 18 18 18 18 18 18 18
20 20 18 19 20 21 19 23 23 22 22 22 21 19 17 18 19 19 19 18 18 18 18 18 18 18 18 18 18 18 18 18 18 18 18 18 18 18 18 18 19 18 18 18 18 18 18 17 17
20 19 18 18 18 19 20 19 23 22 22 20 19 18 17 18 18 18 19 18 18 18 18 18 18 18 18 18 18 18 18 18 18 18 18 18 18 18 18 18 19 19 19 19 19 18 17 17 18
18 18 18 18 18 18 18 20 23 22 21 21 20 17 16 17 18 18 18 18 18 18 18 18 17 17 18 18 18 18 17 17 18 18 18 18 18 18 18 18 19 19 19 19 18 18 18 18 18
18 18 18 17 18 17 19 21 23 23 22 21 21 17 16 17 18 17 17 18 18 18 18 18 18 18 17 18 18 18 18 17 18 17 18 18 18 19 19 19 19 19 19 19 18 18 18 18 18
18 18 18 18 17 18 18 20 22 23 22 22 21 20 20 19 17 17 17 17 18 18 18 18 18 18 18 18 17 17 17 17 17 18 18 18 19 19 19 19 19 20 19 19 19 18 18 18 18
18 17 19 19 18 18 19 19 19 22 23 21 19 20 19 18 18 18 18 18 18 19 18 18 18 18 18 17 17 17 18 18 18 18 18 18 18 19 19 19 19 20 20 20 19 19 19 19 19
18 19 21 19 19 18 18 19 18 22 22 20 19 19 19 19 18 19 19 19 19 19 19 18 18 18 18 18 18 18 18 18 18 18 18 18 18 19 19 18 18 19 19 19 19 19 19 19 19
19 19 20 19 18 18 18 17 17 21 23 22 22 20 19 18 18 19 19 18 19 19 19 19 18 18 18 18 18 18 17 17 17 18 18 18 19 19 19 19 19 19 19 19 19 19 19 20 20
19 20 20 19 18 18 19 17 19 22 22 21 20 19 19 18 19 19 19 19 19 19 19 19 19 18 19 18 18 17 17 17 17 18 19 19 19 19 19 19 19 19 19 20 20 20 20 21 21
20 20 20 19 19 18 18 18 18 21 22 20 19 18 19 19 19 19 19 20 20 19 19 19 19 19 18 18 17 17 17 17 18 19 19 19 18 19 19 19 19 20 20 20 20 21 20 21 21
20 19 20 20 19 19 19 18 18 21 22 20 19 18 19 20 20 20 20 20 20 20 19 19 18 18 18 18 18 18 17 18 18 18 19 18 18 19 19 19 20 20 20 20 21 20 21 21 21
22 20 20 20 20 20 19 20 19 20 21 22 20 19 19 19 20 20 20 20 20 20 19 18 18 19 19 19 18 18 18 18 18 18 18 18 19 19 19 20 20 20 20 20 20 20 21 21 21
20 21 20 20 19 20 19 20 20 20 22 21 21 20 19 19 20 21 20 20 20 19 19 19 18 19 19 19 19 18 18 18 18 18 18 19 19 19 19 19 20 19 20 20 21 21 21 21 21
20 21 21 20 20 20 19 19 19 20 21 21 20 20 21 20 21 22 21 20 20 19 19 19 18 19 19 18 18 18 18 19 19 18 18 19 19 19 19 20 20 20 20 20 21 21 22 21 21
23 22 21 21 20 20 19 20 20 20 20 19 20 20 21 20 21 21 21 21 20 19 18 18 18 18 18 18 18 18 19 19 19 18 18 19 19 19 20 20 20 20 20 21 21 21 22 22 22
22 22 21 22 21 20 19 20 20 18 19 19 20 20 21 20 20 20 20 20 19 19 18 19 19 19 18 19 18 18 19 19 19 19 19 19 19 19 20 20 20 20 21 21 21 21 21 21 22
22 21 21 23 20 20 20 19 18 18 19 20 20 20 21 21 20 20 20 20 20 19 19 19 19 19 19 19 19 18 19 19 19 19 19 19 19 19 19 19 20 20 21 21 21 21 21 21 22
22 23 24 25 20 19 20 20 19 17 18 18 19 20 20 20 20 20 21 20 20 20 19 19 19 19 19 18 18 19 19 19 19 19 19 19 19 19 19 19 19 20 20 20 20 21 22 21 21
22 24 24 24 20 21 21 19 20 17 16 16 18 19 20 20 21 20 21 21 21 20 20 20 19 19 19 19 19 19 19 19 19 19 19 19 19 18 19 19 19 19 19 20 20 21 21 21 21
24 23 20 18 18 19 20 19 17 17 16 17 18 19 20 20 21 21 20 21 20 20 20 20 19 19 19 19 19 19 19 19 19 19 19 19 19 19 19 19 19 19 19 19 20 20 20 21 20
21 19 18 19 18 19 18 19 17 17 17 16 17 18 19 20 20 20 20 21 21 20 20 20 19 19 19 18 19 19 19 19 19 19 20 20 19 19 19 19 19 19 19 19 20 20 20 20 20
22 19 18 20 18 19 19 20 17 17 16 16 16 18 19 19 20 20 21 21 21 21 20 20 20 19 19 19 19 19 19 19 19 19 19 20 20 20 19 19 19 18 19 20 20 20 21 20 20
23 21 20 16 16 18 17 19 18 17 16 16 16 17 17 18 19 20 21 21 21 21 21 20 20 20 19 18 18 19 19 19 19 19 19 19 20 20 19 19 19 19 19 19 20 20 20 20 20
24 20 20 15 19 20 17 18 17 18 16 15 15 16 18 18 18 19 21 20 21 21 21 21 21 20 20 19 18 19 19 19 19 19 19 20 20 20 19 19 19 19 19 19 19 19 19 19 19
21 19 14 14 14 16 17 16 16 16 15 15 15 16 16 16 18 19 19 21 21 20 21 21 21 20 20 20 20 19 19 19 19 19 19 19 19 19 19 19 19 19 19 19 19 19 18 18 18
21 20 16 16 17 13 14 16 16 15 15 15 15 16 16 17 16 19 19 20 21 21 20 20 21 20 21 21 20 19 19 19 19 19 19 19 19 19 19 19 19 19 19 19 19 19 19 19 19